GFSSW_250_spd_003.txt.gz
Wind_Speed
45 57 84 91 90 90 95 99 102 108 105 98 107 113 111 123 120 113 115 116 111 108 112 120 130 122 125 125 97 87 87 74 76 66 65 63 63 63 61 59 59 59 59 59 58
40 39 47 56 69 71 77 90 103 90 94 88 89 89 96 94 90 99 113 115 114 116 114 103 96 91 79 72 63 56 50 50 50 51 51 50 50 49 46 44 45 46 47 47 44
39 39 42 46 42 45 54 56 65 65 66 75 72 78 69 84 96 97 104 87 85 75 75 71 62 53 53 48 38 31 33 32 31 31 31 31 33 35 34 33 32 33 35 37 38
37 35 33 32 30 30 37 46 46 45 37 45 57 68 70 59 65 64 74 66 54 48 48 41 30 24 23 21 18 15 15 17 17 17 18 18 18 20 21 21 23 26 27 28 28
29 27 26 25 23 23 22 22 23 24 21 27 36 40 49 40 38 42 41 38 26 22 17 15 12 11 15 14 13 13 15 15 14 14 16 17 18 19 17 17 20 20 23 23 20
24 22 21 18 16 13 11 9 7 8 14 21 25 28 31 33 33 30 23 19 19 15 16 15 13 17 15 15 17 17 20 20 16 14 16 19 18 17 14 14 18 19 18 14 23
24 22 19 17 13 11 8 4 5 7 14 19 22 22 24 17 18 12 10 12 9 10 12 15 18 12 19 26 29 22 13 31 32 29 30 31 28 30 27 18 30 27 36 34 33
20 19 16 14 10 9 7 6 7 11 15 16 16 14 9 9 9 9 10 10 12 13 15 17 16 23 25 27 28 29 26 28 27 34 32 37 42 41 40 33 31 32 40 38 37
19 16 12 10 6 6 4 5 10 11 12 13 9 7 7 4 3 6 8 10 13 16 18 21 24 25 24 23 26 28 23 27 27 31 30 36 37 36 36 40 40 40 41 46 46
20 14 9 6 5 4 5 9 11 13 9 8 7 6 7 4 2 3 6 10 14 16 20 24 27 26 25 25 24 26 30 28 27 32 30 31 32 35 36 37 40 42 42 43 44
15 11 9 5 4 7 9 11 13 11 10 8 6 8 6 7 5 6 5 7 12 16 18 19 23 24 26 26 24 22 22 26 24 25 24 26 28 30 32 34 35 37 41 42 41
13 10 8 8 7 7 8 10 11 13 13 8 8 15 11 6 4 5 6 10 11 14 16 14 17 18 17 18 21 23 21 24 23 23 21 23 24 27 29 33 35 35 37 38 38
13 11 9 9 9 11 11 11 14 16 16 11 7 18 17 10 8 6 2 6 13 15 14 14 12 13 13 16 18 20 20 20 19 20 20 21 22 23 27 31 33 38 40 40 38
10 9 10 12 12 12 14 16 18 18 17 14 9 19 22 16 11 7 4 6 6 6 5 8 7 10 11 11 14 15 20 22 20 21 19 19 24 26 28 32 36 36 36 44 48
11 12 13 14 14 16 18 17 20 19 17 16 13 20 29 20 14 8 6 7 5 2 1 1 2 4 9 13 13 16 20 21 21 22 22 22 20 23 29 29 32 36 42 48 52
15 16 15 13 14 16 15 20 21 17 19 19 17 21 29 19 17 11 8 7 5 4 4 5 4 9 10 11 11 16 19 20 20 18 22 22 20 18 27 32 33 39 45 49 54
14 12 12 12 14 14 18 18 18 14 16 16 17 21 31 21 18 14 11 6 5 7 9 11 11 14 17 17 13 11 14 17 21 24 26 31 31 25 20 31 41 43 48 53 56
15 14 14 13 14 15 16 18 16 16 13 13 17 20 28 21 21 15 9 9 10 10 10 15 16 17 21 21 16 14 16 16 20 25 27 30 29 32 27 34 38 42 47 50 53
15 17 17 18 18 17 17 15 15 17 16 16 17 24 33 27 22 18 15 15 15 14 12 16 19 18 16 21 20 19 21 19 21 23 24 31 33 36 45 45 46 50 54 57 60
17 17 18 18 19 18 17 17 16 16 15 18 20 26 35 26 23 20 16 16 13 14 16 17 19 21 18 20 23 20 20 24 25 27 23 27 31 43 52 54 56 58 59 62 66
18 19 19 22 20 20 18 19 17 16 13 17 18 26 31 30 22 15 16 16 18 19 22 21 23 22 20 25 28 28 33 35 32 33 32 27 33 51 53 57 61 64 65 69 69
19 18 20 18 19 20 22 20 18 16 13 14 17 27 34 33 33 29 22 21 18 22 22 23 26 27 25 27 30 37 41 40 39 33 41 32 40 51 53 58 63 67 68 72 71
22 21 22 20 21 21 21 20 20 18 15 15 17 24 31 32 33 34 30 25 22 21 22 25 26 32 36 34 39 48 50 50 41 39 48 45 48 60 62 65 71 73 74 76 78
28 24 22 21 23 23 22 20 22 24 20 16 17 25 29 32 33 34 34 31 22 22 26 27 31 35 42 40 38 41 54 58 48 45 41 54 49 61 65 69 73 74 76 77 79
32 29 24 22 21 22 22 24 23 22 23 23 22 22 29 36 38 39 38 34 33 31 35 37 42 40 45 45 42 42 54 59 59 58 57 50 64 66 70 73 73 76 78 80 81
36 31 30 29 26 27 25 24 24 23 24 23 23 24 25 30 35 39 39 41 45 47 48 45 47 37 43 45 43 44 56 64 64 65 66 67 64 73 72 74 78 80 84 85 88
39 37 35 35 35 33 31 29 29 27 27 25 24 25 25 26 31 34 34 36 40 39 36 38 38 39 39 48 47 52 58 63 63 66 68 67 68 70 75 80 83 84 87 88 89

GFSSW_250_spd_006.txt.gz
Wind_Speed
41 46 57 68 82 87 90 95 103 106 109 112 118 118 113 115 106 113 117 115 116 109 108 110 111 109 110 109 117 117 120 109 105 81 81 77 66 63 60 59 54 51 54 53 54
37 41 48 53 61 71 70 79 82 89 96 96 103 105 108 113 105 102 113 110 102 107 110 112 116 115 114 111 112 99 99 85 69 59 54 53 48 43 41 39 38 37 36 33 34
34 34 38 41 45 49 52 66 73 68 80 86 85 91 91 98 93 94 94 106 113 113 116 114 100 92 95 69 62 49 53 47 40 38 32 28 25 24 23 22 21 21 22 19 20
27 31 32 33 38 45 46 50 55 69 72 67 77 72 76 80 86 84 92 92 109 102 83 99 72 57 48 34 25 21 21 21 21 20 17 17 16 15 15 15 17 17 17 17 15
34 31 35 35 37 34 35 37 37 39 41 45 44 42 53 61 77 73 64 64 68 51 50 30 19 15 13 8 10 10 8 7 6 9 10 12 15 19 19 21 23 24 21 22 26
31 34 33 32 29 29 27 21 17 16 18 19 21 24 30 33 31 31 33 28 15 15 16 14 14 14 13 12 15 14 18 19 17 19 18 22 20 15 12 21 35 27 30 32 31
30 29 28 22 17 14 13 11 7 9 12 15 19 21 22 22 17 16 12 13 12 13 13 13 11 11 13 16 18 20 19 19 16 18 23 25 35 34 32 35 36 34 38 39 40
21 20 18 18 16 12 9 7 6 9 12 14 16 18 16 15 13 13 11 11 10 12 11 7 5 6 10 11 12 14 15 15 16 27 31 35 34 33 33 34 34 35 36 36 35
21 20 17 14 12 11 11 8 7 9 11 12 14 14 13 11 7 11 8 6 6 7 4 2 4 8 10 13 14 11 13 17 23 26 27 28 29 31 31 33 35 35 36 38 38
19 17 14 12 11 10 6 5 9 10 10 9 11 9 10 9 8 7 3 1 4 4 3 10 12 15 12 11 12 16 15 17 18 21 22 22 24 26 27 30 32 33 35 36 40
19 15 10 8 7 5 6 7 9 8 8 9 8 9 8 11 11 6 8 6 4 4 7 9 11 13 11 11 11 12 15 16 17 17 16 18 18 20 24 26 26 26 34 39 41
18 14 11 8 4 5 7 8 10 11 12 11 9 11 12 10 7 5 7 5 5 5 6 5 7 6 7 10 12 12 12 13 13 13 16 18 17 18 20 22 24 27 33 36 40
15 13 10 7 6 8 10 10 11 14 16 15 10 12 16 15 9 9 7 7 7 7 2 1 3 6 6 7 7 7 10 9 11 13 15 14 15 18 18 19 21 24 31 35 39
16 12 10 9 9 9 10 12 13 15 17 17 13 13 17 22 14 12 10 11 9 8 6 5 6 7 7 11 11 7 11 10 8 9 12 14 15 14 17 21 28 32 31 35 35
13 12 11 10 10 10 12 13 12 17 18 18 17 17 18 25 23 17 12 12 13 11 10 11 10 12 12 13 15 15 15 12 9 13 19 21 22 14 17 23 26 31 38 40 44
12 12 13 13 11 10 11 11 14 18 20 18 18 20 20 22 29 23 19 15 14 13 12 12 14 16 19 21 20 21 21 19 20 23 22 28 28 29 25 18 29 35 36 40 46
14 16 15 12 12 11 10 12 16 21 20 18 17 19 20 23 31 26 19 17 13 13 13 13 17 19 22 25 26 23 21 23 24 24 28 23 27 34 36 37 39 41 42 44 49
13 14 15 14 14 13 13 15 17 18 18 18 15 18 21 23 29 25 19 14 12 13 14 18 11 16 19 23 24 24 19 20 20 22 27 35 37 43 37 39 41 38 42 47 48
12 12 14 15 16 18 17 17 16 18 19 17 18 16 17 21 31 26 21 18 17 16 12 16 15 17 18 22 23 23 27 25 24 28 29 35 39 49 47 45 45 48 48 49 54
15 15 16 16 18 17 18 19 18 20 20 17 15 20 21 26 30 29 25 23 20 18 16 18 20 20 17 20 22 26 29 31 30 32 29 37 36 51 46 52 57 60 62 63 64
17 16 17 17 17 20 19 18 19 20 22 16 15 19 19 20 26 31 29 26 21 21 22 20 21 23 23 23 24 26 32 34 37 38 32 30 35 52 49 56 62 64 65 66 66
21 20 20 18 18 18 17 18 18 18 20 20 18 19 17 20 25 30 31 29 27 29 27 27 22 27 27 30 31 32 37 39 37 34 39 39 42 58 60 59 59 62 65 68 73
25 23 22 21 21 20 20 19 20 20 19 18 18 19 20 22 29 32 36 38 40 36 34 33 33 28 34 34 36 45 55 53 46 42 44 41 46 58 62 63 67 69 71 76 80
28 28 27 26 23 20 22 23 23 23 22 21 17 17 17 22 26 34 38 40 38 39 40 38 39 36 38 46 48 45 52 59 57 51 48 55 48 59 62 65 70 74 76 81 85
32 32 32 30 28 24 22 21 22 24 23 21 20 19 19 18 22 30 36 39 42 41 41 39 45 47 48 45 41 42 47 54 58 61 60 56 63 65 69 73 75 80 82 84 85
34 33 34 35 32 31 28 27 25 25 24 24 21 23 21 21 22 22 23 25 30 32 34 33 36 37 38 45 43 44 52 56 60 62 65 66 68 76 76 80 83 83 85 85 90
36 35 35 35 32 31 35 34 33 31 30 28 28 27 28 27 26 29 30 33 33 33 36 37 37 37 39 47 50 54 60 64 64 67 70 71 73 75 78 80 82 85 88 90 97

GFSSW_250_spd_009.txt.gz
Wind_Speed
42 46 50 56 59 68 78 90 101 101 104 111 112 114 115 114 113 112 113 115 116 112 112 117 114 112 113 117 117 112 108 118 124 119 103 96 93 86 78 68 63 59 56 47 41
32 36 43 49 54 63 74 79 76 86 92 102 101 97 106 106 112 116 113 112 118 116 114 112 113 111 104 114 117 119 116 103 99 96 87 71 62 57 48 44 40 33 29 26 21
32 37 40 44 46 48 54 60 62 70 75 80 83 84 92 102 104 106 108 110 111 105 104 89 95 109 102 103 99 98 91 82 63 55 51 45 39 34 29 24 18 15 12 10 10
33 36 37 40 41 43 45 46 49 57 64 78 90 87 84 90 94 96 102 99 106 102 98 91 102 102 89 79 66 48 42 38 31 29 27 21 13 6 5 9 14 16 17 18 18
30 30 31 33 34 34 35 40 43 47 51 55 58 59 69 66 74 85 85 79 87 94 91 94 54 38 31 22 19 21 19 13 5 5 5 12 13 15 16 16 25 28 30 37 35
33 34 31 33 31 33 36 34 33 36 35 41 39 36 34 35 33 39 40 46 41 31 16 19 10 12 13 13 13 11 9 9 13 15 17 17 20 22 23 28 31 34 39 37 38
29 31 26 29 28 33 30 25 26 25 24 18 15 15 16 16 14 13 11 6 8 8 12 9 12 13 15 15 13 11 13 15 15 18 20 24 25 28 27 32 34 35 36 36 36
27 25 25 25 30 21 20 21 15 11 9 10 10 11 13 9 5 6 5 3 8 11 16 15 14 14 10 8 7 10 15 12 17 22 25 25 26 27 27 28 28 32 32 32 31
26 25 23 22 19 20 19 13 6 6 8 8 9 11 9 6 3 5 6 7 10 12 16 14 10 8 6 5 4 9 5 9 15 18 19 20 20 20 21 23 27 29 30 31 33
17 20 21 20 16 13 11 7 5 7 7 8 9 10 10 8 5 5 5 9 12 12 15 9 8 6 6 4 4 2 3 6 12 14 13 14 17 18 19 22 22 23 25 27 28
23 21 19 16 15 14 10 6 5 6 6 8 10 11 10 9 6 7 5 10 9 7 6 3 7 6 3 3 1 3 6 7 8 9 9 10 11 12 13 15 17 21 24 25 26
24 20 16 12 11 8 5 4 5 7 8 10 10 12 11 13 10 8 9 10 7 7 3 4 3 2 2 1 2 2 2 3 5 7 10 8 7 7 9 13 19 24 26 25 25
21 17 14 11 7 5 5 6 8 9 11 14 12 12 14 15 17 13 12 10 9 10 6 7 7 2 3 4 6 5 4 10 9 6 7 10 9 12 16 17 16 20 23 27 30
19 15 13 10 8 7 6 7 9 12 12 15 16 15 16 16 19 18 14 13 13 11 10 12 10 9 8 11 12 10 12 15 11 10 14 16 15 10 14 18 20 22 27 31 34
14 12 11 9 8 8 8 9 11 11 12 17 19 18 17 18 19 23 19 14 13 13 15 13 18 17 14 16 19 19 17 18 14 14 15 20 22 15 13 13 14 19 28 29 35
15 13 12 10 9 9 9 11 12 13 16 19 19 17 20 20 21 20 26 20 15 14 16 17 17 17 20 23 24 23 23 19 18 22 19 24 30 36 32 31 25 24 26 28 36
16 15 13 12 11 10 11 10 12 14 18 18 18 17 20 20 21 20 27 27 20 15 15 16 18 20 17 17 16 22 21 22 21 22 30 27 32 39 42 42 40 37 37 41 45
16 14 12 10 11 11 12 12 14 15 18 21 22 20 19 17 22 20 23 32 21 18 16 17 16 20 19 18 21 22 22 22 25 28 29 37 40 48 45 45 44 43 45 49 54
13 11 10 11 11 13 14 15 13 15 18 20 24 22 19 20 18 18 22 30 23 18 17 18 17 18 20 18 22 23 24 26 28 28 29 32 44 55 51 49 51 47 51 51 55
14 13 12 12 13 14 15 14 16 16 17 17 22 21 17 22 18 24 23 26 24 20 18 22 22 21 21 22 24 27 30 33 35 34 34 36 41 51 54 54 57 58 58 64 68
17 17 15 14 14 15 15 16 16 16 15 16 18 20 21 20 17 15 21 26 24 25 24 25 28 26 27 26 27 29 33 31 36 39 41 34 39 52 50 52 54 59 66 65 70
22 20 18 16 15 15 15 17 16 16 17 17 18 18 19 20 18 17 17 23 27 28 32 29 31 39 36 34 33 35 42 46 40 37 44 38 44 54 58 60 62 65 69 72 76
23 23 23 21 18 19 18 18 19 20 19 18 18 19 16 17 16 16 20 25 30 33 35 39 40 43 46 41 41 44 53 56 48 45 45 44 47 55 58 60 64 68 73 76 77
27 27 26 25 23 24 23 21 20 19 18 17 18 17 16 17 16 16 21 25 30 36 40 41 44 40 44 44 40 39 42 47 49 48 47 59 55 66 69 71 73 74 76 76 79
30 31 30 28 28 28 27 25 23 21 17 18 19 19 19 18 18 17 17 17 20 26 25 26 32 30 36 34 35 38 44 49 53 58 59 59 68 70 72 73 75 77 80 83 86
35 34 34 32 30 31 29 30 30 30 25 25 22 24 25 22 23 23 23 24 26 27 27 30 31 32 39 44 45 48 55 56 59 62 64 64 65 72 75 79 83 84 86 90 94
38 38 37 36 33 32 31 30 30 31 34 32 30 27 27 30 29 30 31 33 34 34 39 41 39 37 40 46 49 52 58 58 59 62 65 70 72 75 80 83 87 89 89 92 96

GFSSW_250_spd_012.txt.gz
Wind_Speed
33 35 38 42 43 54 62 71 81 92 99 105 103 107 109 112 114 113 113 113 117 113 109 114 113 112 108 112 114 114 119 117 115 115 116 106 110 115 98 92 87 76 69 53 45
35 36 36 36 42 45 48 53 63 70 78 87 88 102 98 97 103 111 110 114 115 116 115 118 114 114 114 120 116 109 111 101 100 102 101 98 90 82 68 58 53 45 38 28 24
35 37 35 35 38 42 47 50 46 54 58 69 75 87 85 96 99 94 101 108 110 106 100 110 116 101 98 98 105 97 95 93 91 81 70 70 53 45 39 29 20 12 5 4 6
29 30 31 32 34 35 38 38 42 44 50 51 56 66 72 68 70 75 84 92 92 90 81 83 88 87 83 90 87 86 82 59 57 41 41 32 28 19 4 5 7 8 15 21 23
29 30 31 32 32 32 34 34 35 40 44 44 48 50 50 51 55 61 65 71 66 68 72 77 84 82 77 56 38 28 24 22 23 20 15 13 3 7 10 18 22 27 28 31 33
22 24 25 26 29 29 28 28 30 31 31 33 35 37 38 44 46 56 60 63 61 67 68 45 44 32 23 20 18 13 12 10 8 7 6 3 9 16 19 24 27 27 28 27 26
24 23 23 24 24 25 25 23 23 25 26 29 28 29 30 32 38 42 41 36 26 22 17 11 13 11 12 9 8 7 9 10 9 6 6 10 17 21 23 24 24 25 22 23 24
27 27 27 25 24 20 17 19 20 19 21 19 16 17 17 17 18 18 15 11 5 4 1 5 4 5 5 2 7 8 9 9 8 13 13 17 16 17 19 19 20 18 19 20 22
26 25 22 22 20 18 18 19 17 17 13 11 11 10 9 10 10 10 8 6 2 2 6 5 3 1 3 5 3 3 5 4 6 8 10 10 11 13 13 13 14 15 17 17 19
24 17 14 13 14 17 17 17 15 10 6 7 6 7 7 7 9 9 6 5 4 5 5 3 1 1 1 3 5 3 0 4 7 6 6 5 6 8 6 4 8 11 15 15 15
17 19 21 19 20 20 18 15 10 6 6 7 7 7 9 10 8 9 8 5 8 6 4 1 2 2 6 2 2 4 7 7 6 4 3 3 3 3 2 3 7 11 13 11 11
17 23 23 21 19 18 15 10 7 5 6 7 9 11 11 10 9 10 11 9 9 6 5 6 4 4 3 3 4 4 11 10 9 7 6 7 10 12 6 4 10 12 12 12 18
26 24 22 21 19 15 12 8 6 7 8 9 9 11 15 13 12 12 14 14 12 10 8 10 10 7 5 6 8 11 12 11 14 14 15 15 15 19 23 19 20 26 25 25 26
27 23 19 16 13 8 6 6 7 9 11 11 14 16 17 16 14 14 17 17 16 14 14 12 13 12 12 9 9 12 15 16 18 19 19 23 22 15 12 18 23 24 30 35 36
23 16 15 13 10 8 8 9 9 10 10 12 15 18 18 18 16 19 18 22 20 17 15 16 14 15 18 17 19 21 18 19 18 20 23 23 26 20 19 24 26 25 28 30 34
19 14 14 13 12 10 10 10 10 10 11 14 15 15 17 18 19 21 22 23 25 21 18 16 17 16 15 15 18 19 18 19 21 23 24 25 31 28 29 21 19 23 30 34 36
18 15 15 13 11 10 10 10 10 10 12 13 14 17 18 19 18 21 23 24 25 27 21 19 19 20 17 18 18 19 22 22 22 26 29 29 36 36 39 39 40 37 39 40 46
19 16 15 13 12 11 12 13 13 13 11 13 16 17 19 17 16 14 22 22 23 27 25 23 22 22 21 18 19 19 21 24 24 23 29 37 43 43 46 47 45 47 49 50 53
19 17 17 14 11 13 13 13 14 16 13 15 14 16 18 14 15 16 19 19 20 27 28 24 24 23 22 24 24 24 25 26 29 29 27 35 48 61 54 51 51 50 49 55 59
18 16 15 12 11 13 13 13 12 14 15 15 14 13 17 15 15 16 19 19 19 24 24 25 24 24 27 28 29 30 35 31 29 28 31 36 49 55 52 50 50 55 59 63 67
19 19 18 15 12 12 14 13 14 13 13 13 13 13 17 17 15 13 10 13 18 26 25 28 30 28 28 28 31 38 40 38 39 43 47 40 41 47 46 48 50 57 62 65 66
21 20 19 17 17 14 13 14 14 14 15 15 15 15 15 16 17 15 13 13 15 23 28 29 33 34 33 32 39 48 49 44 40 38 38 35 39 45 49 52 55 60 64 69 73
23 23 22 22 21 20 17 17 16 15 17 18 15 13 14 14 15 15 14 13 16 19 25 32 36 39 38 43 45 51 53 40 34 37 39 44 45 54 53 57 62 64 70 72 75
28 27 26 27 26 25 22 21 20 19 18 16 16 17 15 15 15 14 14 13 13 14 18 25 31 36 39 37 31 37 42 42 44 47 48 54 51 59 60 61 65 72 77 79 82
32 31 30 30 30 28 25 24 25 23 23 22 21 19 19 19 19 20 18 18 18 18 21 23 24 27 31 33 37 44 46 50 54 56 55 57 60 61 65 69 74 78 79 81 86
36 34 31 33 33 30 28 27 28 24 26 27 28 28 27 24 25 27 26 25 26 27 29 31 33 35 41 43 44 48 48 48 51 54 58 61 65 68 71 76 78 81 83 90 96
41 38 34 36 36 34 34 33 32 29 29 28 28 30 32 32 32 29 29 29 29 31 33 34 36 40 44 47 47 51 52 56 59 65 66 68 71 76 79 81 86 88 89 99 103

GFSSW_250_spd_015.txt.gz
Wind_Speed
28 30 33 41 43 47 47 56 70 82 94 102 110 113 116 116 113 113 115 111 111 116 105 111 108 111 111 108 108 110 109 112 120 119 121 128 125 123 121 118 109 103 96 81 68
26 33 31 35 36 39 45 49 57 62 71 82 84 95 99 92 98 110 111 114 114 114 113 112 112 110 112 112 112 114 117 117 116 113 109 111 116 103 98 89 80 74 56 42 36
28 30 31 34 32 36 38 39 47 53 56 58 64 69 74 85 88 93 108 107 107 109 115 115 106 96 110 114 113 97 104 108 104 89 85 88 84 69 63 54 49 40 26 17 13
26 30 32 31 34 37 38 42 44 46 45 42 42 51 58 57 64 66 75 75 72 88 106 93 88 101 111 108 106 94 91 86 82 81 59 51 44 41 38 26 24 11 1 8 12
28 31 31 29 31 31 34 38 37 34 34 35 31 35 44 45 44 57 47 65 65 57 60 73 65 68 72 74 74 66 66 52 52 34 34 28 25 19 14 5 6 14 17 18 18
31 32 30 31 32 33 32 30 30 25 25 27 29 29 32 37 35 38 36 46 50 43 41 43 55 51 49 52 34 34 27 27 23 20 15 11 7 2 5 12 17 17 16 15 16
29 28 27 27 27 25 22 22 22 22 21 22 21 22 27 29 28 31 31 33 29 31 36 35 32 22 25 33 26 20 20 16 4 3 2 3 12 13 13 14 10 10 11 11 11
26 25 24 24 23 22 20 21 19 17 14 16 19 18 17 19 19 19 20 22 22 21 20 20 17 12 10 16 18 9 5 4 2 3 4 10 13 10 11 7 5 4 4 7 7
29 28 28 27 26 23 20 18 13 14 16 15 13 10 11 11 14 17 18 17 13 12 11 9 8 7 7 6 6 2 2 2 8 8 12 9 9 10 8 6 5 1 4 8 7
28 27 26 24 23 20 16 15 16 15 11 8 7 8 10 11 13 15 17 16 14 10 7 6 5 5 5 5 3 5 7 5 6 8 9 11 10 11 8 9 9 9 14 16 17
26 25 22 21 20 16 13 12 10 10 8 7 7 8 8 12 12 14 15 16 12 6 6 7 6 6 5 7 7 4 8 8 9 10 12 13 13 11 14 15 11 14 15 20 25
21 18 15 14 13 13 14 14 13 10 7 6 7 7 8 10 10 12 13 15 13 11 10 9 10 9 7 6 4 7 10 14 14 14 17 18 14 15 17 21 22 22 25 27 27
15 15 16 16 15 17 17 14 10 7 6 7 8 8 10 12 13 13 15 16 18 14 11 12 14 11 9 8 10 11 15 17 17 18 22 23 25 22 22 27 21 26 30 30 29
20 19 19 17 17 17 13 9 7 6 7 8 9 10 12 15 18 15 16 18 19 19 16 14 15 15 15 15 15 16 17 19 21 23 25 26 24 26 31 28 28 27 32 38 35
26 22 21 21 19 15 11 8 7 7 9 9 10 14 14 12 15 19 18 19 21 21 20 16 16 15 15 16 19 20 20 21 17 20 22 24 25 24 28 30 30 34 31 32 42
25 22 21 18 14 10 8 8 9 9 8 10 12 11 13 15 15 17 19 19 23 25 24 20 19 16 16 18 20 21 18 19 22 23 23 25 27 28 29 32 34 38 41 43 41
24 19 18 16 14 13 12 12 13 11 9 12 14 14 14 14 16 17 18 19 21 24 26 26 22 20 18 19 22 22 21 23 25 26 28 29 31 32 32 30 32 42 43 41 43
23 19 18 17 16 15 15 15 14 11 12 12 14 15 14 12 12 13 16 14 18 21 23 29 27 23 21 21 21 21 25 27 26 28 35 39 41 41 41 37 44 39 36 41 45
27 20 18 17 15 15 15 14 12 13 15 15 15 16 13 13 14 14 16 19 19 19 24 27 27 24 24 25 24 23 26 27 27 32 36 45 54 56 49 49 43 38 44 49 52
26 22 19 18 18 15 14 14 14 15 13 13 14 13 12 15 15 18 17 18 19 20 21 24 27 26 27 26 28 29 28 29 32 37 41 45 54 51 47 41 47 53 55 57 60
26 22 21 19 15 15 15 15 14 13 14 13 13 14 15 16 16 16 14 13 15 15 21 24 27 27 29 32 35 35 35 37 41 47 45 35 39 43 45 47 53 57 60 61 63
28 26 25 23 20 19 16 15 15 14 13 14 15 17 16 16 16 17 15 11 10 13 16 21 28 28 30 35 39 39 41 42 40 37 36 36 42 46 50 55 57 59 62 65 70
32 29 26 26 25 23 20 18 17 17 16 14 16 17 16 15 15 15 16 14 13 13 12 15 19 23 29 34 40 39 35 33 34 38 41 45 49 55 51 53 57 63 68 71 76
34 31 28 27 26 25 24 23 23 20 19 18 17 18 18 18 18 19 18 19 17 16 18 20 20 21 21 24 30 35 38 41 43 45 45 49 47 56 59 63 66 70 73 75 78
39 35 32 30 30 28 28 28 27 25 24 22 23 24 25 24 24 23 23 24 25 24 25 27 28 29 30 32 35 42 45 48 46 47 46 51 57 61 64 68 72 75 77 79 81
43 39 38 35 33 32 32 31 30 29 29 26 24 26 27 29 31 31 31 30 32 32 29 29 29 31 38 38 41 46 47 47 49 53 54 58 63 67 72 76 77 78 80 83 83
45 44 42 39 36 35 34 34 34 32 32 32 31 30 31 32 32 33 33 32 34 35 33 34 33 36 43 46 48 51 51 53 55 61 62 63 69 74 77 80 82 82 86 89 93

GFSSW_250_spd_018.txt.gz
Wind_Speed
29 30 34 35 37 40 44 48 48 57 68 86 98 102 106 107 106 110 110 109 109 106 102 112 105 108 102 110 105 108 114 105 110 108 109 113 114 117 121 118 119 110 98 95 88
26 27 29 33 36 39 40 43 47 48 56 65 74 85 95 99 102 107 104 106 107 108 107 111 110 110 114 113 109 106 110 108 104 105 111 111 114 120 114 106 95 94 83 69 59
21 27 29 30 33 34 34 39 41 44 48 51 57 63 77 83 100 106 102 104 112 108 111 108 110 108 108 114 110 107 111 103 102 101 103 109 106 101 91 85 71 61 52 47 37
22 25 29 29 32 32 35 37 37 39 40 41 45 52 62 83 86 89 91 91 93 110 108 104 93 97 90 92 81 88 94 84 93 87 92 72 68 62 59 53 48 34 33 26 12
23 26 29 29 30 32 34 36 36 34 37 37 37 38 41 43 49 61 63 73 78 80 97 89 69 79 78 90 94 82 80 72 76 80 71 56 45 35 30 25 23 15 8 1 6
26 27 29 29 28 29 33 33 30 31 30 28 25 25 27 28 31 37 40 45 34 45 52 81 68 51 64 71 69 74 65 52 39 34 33 38 29 21 11 9 6 5 3 1 1
29 28 28 26 30 34 32 32 30 27 20 18 16 16 18 17 24 28 29 25 27 24 29 54 71 49 48 43 50 42 33 25 23 21 17 11 12 10 2 4 4 4 6 5 6
32 28 27 28 30 29 28 24 21 18 14 11 12 12 14 18 19 17 18 19 16 20 25 30 32 33 33 36 24 20 19 10 8 5 6 6 7 6 6 6 5 5 7 11 13
30 29 27 25 25 22 18 16 14 13 15 14 12 11 13 13 17 16 15 16 17 21 24 20 14 15 15 14 12 11 7 3 6 7 8 10 11 10 12 10 11 11 11 13 16
32 30 28 26 24 23 24 23 22 18 14 13 12 13 12 13 12 13 14 16 17 20 18 15 13 12 10 7 6 7 5 6 8 10 12 12 12 14 16 16 17 19 19 20 21
31 30 29 28 29 26 25 21 18 17 12 11 10 9 10 10 10 11 13 15 14 13 13 12 10 9 7 8 8 6 8 8 10 13 15 15 16 18 18 21 23 25 27 30 30
30 29 29 27 24 22 20 18 14 10 10 11 10 9 7 6 8 10 12 13 13 14 12 12 10 11 10 9 10 12 9 9 12 16 17 18 20 22 22 28 28 29 30 31 34
28 26 25 22 17 16 16 13 11 10 8 7 7 4 6 9 11 13 14 16 17 18 17 14 14 14 13 12 12 12 12 13 15 19 23 24 25 26 30 35 33 33 33 35 39
22 20 19 16 17 16 16 14 11 9 8 7 3 3 7 11 14 15 15 16 18 19 18 16 14 17 16 16 15 15 17 18 21 24 23 21 23 22 25 30 32 32 33 37 42
20 20 20 18 17 18 16 13 10 9 7 5 5 6 10 11 13 15 15 15 18 20 19 19 18 17 17 17 18 19 22 22 23 21 18 17 20 21 24 26 27 31 36 43 45
25 23 21 19 19 18 14 11 10 9 5 7 7 9 12 14 16 17 17 16 15 20 24 24 22 20 18 20 22 19 18 21 22 18 18 19 22 26 27 27 26 30 36 43 46
26 23 23 22 21 17 14 12 10 9 8 9 9 11 15 17 19 19 20 19 17 20 23 26 27 25 21 22 23 24 22 21 20 21 21 23 26 31 34 35 37 42 45 48 49
27 25 24 22 19 16 14 11 11 9 10 10 12 12 14 16 18 16 16 13 16 18 21 24 27 26 27 24 24 25 24 22 21 24 27 30 36 38 40 38 40 38 37 38 43
28 24 22 20 18 17 15 13 11 11 12 14 15 15 15 16 15 14 15 15 18 17 20 21 24 25 28 29 26 26 26 25 26 27 31 40 48 45 44 41 38 42 44 49 53
29 24 22 21 20 17 15 13 14 13 14 14 14 13 14 14 15 14 13 14 14 14 15 17 22 26 26 28 28 27 29 28 30 31 35 43 54 52 39 41 47 49 54 53 55
32 29 24 21 18 17 16 16 15 13 14 14 15 13 12 15 16 14 13 13 13 12 13 14 16 22 26 28 27 29 30 31 34 37 38 33 49 45 48 53 55 54 55 59 62
33 30 25 22 20 19 18 17 16 16 16 14 14 14 15 16 16 16 13 12 12 12 12 12 12 15 23 28 30 31 32 33 34 36 37 37 45 49 48 48 50 55 57 63 68
34 31 28 25 23 22 21 20 19 19 18 16 15 16 17 17 18 19 18 16 16 17 18 15 12 12 15 19 20 23 25 28 32 37 41 44 45 46 46 52 55 59 63 66 71
36 33 30 27 26 26 25 24 24 23 22 20 18 20 20 20 21 23 22 21 22 22 24 24 23 24 26 30 31 31 32 33 36 39 40 46 45 52 57 61 64 65 67 70 74
39 35 33 30 28 28 28 27 28 28 27 25 25 24 24 26 27 28 29 29 29 28 30 33 33 30 32 31 32 36 37 41 41 43 41 47 53 57 62 64 68 71 75 77 81
42 39 35 34 32 32 32 31 30 30 31 29 29 29 29 29 30 30 31 30 29 30 31 32 31 33 36 34 37 44 46 47 50 51 51 54 57 63 67 71 73 77 78 81 85
44 43 41 40 40 38 36 34 34 33 34 34 33 33 32 34 35 35 35 34 34 33 34 34 34 35 39 40 46 51 51 47 50 55 57 60 65 69 73 76 79 81 84 86 90

GFSSW_250_spd_021.txt.gz
Wind_Speed
26 29 31 32 33 35 38 40 43 48 54 60 59 66 78 93 92 91 98 90 94 96 96 98 102 98 97 97 96 97 95 97 97 103 110 104 106 111 113 112 110 118 103 98 100
24 26 29 30 32 35 36 38 42 46 48 49 52 54 61 72 80 79 93 99 96 90 97 97 104 101 97 94 100 96 98 107 101 97 98 103 108 104 101 99 96 100 92 83 80
22 26 29 32 32 34 35 39 43 43 42 42 46 48 53 60 69 83 94 94 94 91 92 96 102 102 98 77 92 98 103 101 101 98 100 101 91 87 88 90 91 88 78 65 54
24 28 28 31 33 33 35 38 40 40 38 37 39 44 45 49 57 66 66 67 77 85 88 99 107 104 106 101 96 96 102 98 101 97 87 85 87 85 80 74 72 62 50 33 29
25 28 30 32 32 33 36 35 34 35 34 33 33 40 43 42 43 49 50 61 64 77 67 84 96 91 92 84 84 80 85 95 79 75 73 79 81 73 62 52 48 33 20 15 12
25 28 30 31 32 34 34 35 33 31 31 30 31 27 29 32 35 36 42 50 57 53 58 60 66 69 76 78 79 76 72 79 73 75 71 58 48 41 41 30 18 13 14 12 11
29 32 31 32 33 33 32 32 29 29 27 23 18 15 18 15 16 18 24 33 48 59 56 47 55 55 66 77 66 69 74 58 45 41 37 32 27 22 17 13 12 10 10 10 11
32 32 33 32 31 31 29 29 24 22 19 13 11 8 7 5 7 9 11 15 18 22 26 31 44 40 32 41 43 45 37 32 29 24 20 19 14 12 12 12 12 11 15 16 17
31 32 29 29 31 31 29 26 22 17 14 13 11 9 7 9 11 12 14 18 18 19 20 21 23 26 26 25 25 24 19 16 16 12 12 10 8 10 12 16 17 16 16 22 24
32 30 29 30 27 25 22 20 18 18 16 14 10 9 11 12 13 14 15 15 17 18 21 22 22 21 19 16 16 13 11 11 8 9 9 9 12 14 18 19 21 22 24 26 29
31 30 29 29 27 25 26 24 22 18 16 13 13 16 15 13 12 13 14 15 15 17 20 17 17 15 12 9 9 9 9 9 8 10 10 14 17 19 21 23 25 23 29 35 37
31 29 28 29 28 27 25 23 22 19 18 18 18 17 14 10 6 6 8 11 13 13 15 14 12 12 10 6 5 8 8 8 10 10 10 13 19 22 23 24 26 30 33 32 35
33 31 30 29 28 27 26 23 20 18 18 17 14 11 8 7 7 8 9 10 11 14 14 14 12 10 11 11 8 10 12 12 14 15 16 17 20 21 21 23 26 28 30 34 37
31 32 29 27 26 25 24 23 21 19 15 11 8 9 7 6 7 9 10 12 13 13 15 15 14 13 11 13 14 15 17 17 18 19 21 20 18 20 21 22 23 25 31 36 41
32 32 30 26 25 26 24 22 18 14 11 11 11 9 5 5 7 10 13 15 14 15 16 17 17 16 17 18 19 19 20 21 22 19 19 17 17 18 18 20 25 30 36 42 43
31 30 27 26 25 23 21 18 15 12 9 9 8 6 4 6 10 12 14 15 18 19 19 20 21 21 22 22 21 21 20 19 18 19 18 17 17 19 24 25 28 39 41 43 43
29 25 25 24 23 22 20 17 12 9 8 6 4 4 5 8 12 12 14 14 14 15 18 20 23 25 26 27 26 23 21 19 20 21 20 20 22 26 29 33 37 40 41 36 37
28 26 25 25 24 22 18 13 10 7 7 6 7 8 10 12 12 11 11 11 13 14 15 18 19 22 26 26 28 26 25 22 21 19 22 24 27 31 35 39 40 39 39 42 45
29 27 27 25 23 20 17 14 10 8 9 9 9 9 10 10 9 9 10 11 13 13 13 15 17 19 20 24 26 30 29 26 23 23 27 31 31 37 37 35 38 42 44 46 45
30 27 27 26 23 20 16 15 12 11 10 10 10 8 9 10 10 12 10 10 11 11 12 13 14 15 18 20 21 28 28 27 26 26 29 37 41 32 35 39 43 44 45 46 51
30 27 27 25 22 19 18 16 14 12 11 11 9 10 10 12 12 12 9 8 8 9 10 11 12 13 13 15 16 18 24 25 27 30 30 33 49 40 42 44 44 45 47 51 56
33 30 25 22 21 21 19 16 15 15 13 11 10 9 9 12 14 14 13 12 12 12 12 12 11 12 13 16 16 16 19 22 20 24 30 32 42 42 43 44 48 51 53 57 60
32 33 29 25 23 21 19 18 18 17 14 12 11 12 14 14 15 15 16 17 18 19 19 19 19 20 20 21 23 25 25 26 26 27 32 36 40 44 43 45 48 51 55 60 66
33 32 32 30 25 23 21 21 20 19 17 16 17 17 17 17 18 21 22 22 23 24 26 27 26 27 29 28 27 27 25 27 29 33 36 47 40 47 46 50 56 61 64 67 70
33 31 33 32 29 27 26 25 24 22 21 21 22 23 24 24 23 24 23 25 27 27 27 26 29 29 29 28 29 33 33 30 30 34 37 41 45 49 53 58 63 66 70 71 75
34 33 35 34 32 31 29 27 27 26 26 26 26 27 28 29 28 30 30 31 32 32 30 30 28 31 35 30 33 38 37 38 38 43 44 45 50 54 59 63 67 70 72 75 77
40 36 38 37 36 35 33 32 31 31 30 30 30 30 31 33 34 34 33 33 35 36 37 34 32 30 34 35 40 44 42 41 44 49 51 53 55 59 65 67 70 73 76 81 83

GFSSW_250_spd_027.txt.gz
Wind_Speed
33 32 34 34 37 39 44 46 45 46 47 47 51 57 60 63 69 69 73 77 83 96 100 98 91 91 92 91 91 92 92 93 93 90 92 93 94 92 92 95 99 96 98 99 98
28 26 27 28 31 34 38 41 42 45 46 44 49 52 53 55 59 64 68 73 80 82 91 97 99 99 98 97 90 91 93 90 91 95 94 92 94 97 98 98 101 107 108 97 93
25 25 26 26 28 32 36 40 41 42 41 43 46 48 49 50 52 54 58 62 70 76 84 89 90 94 95 96 96 92 95 93 94 93 94 96 98 101 104 105 101 101 92 87 79
23 24 27 27 30 33 35 38 38 38 40 42 43 44 46 48 47 50 54 58 63 65 66 73 79 81 83 89 93 87 89 93 94 93 94 93 92 96 94 91 91 80 75 75 69
23 25 29 29 31 32 35 35 35 35 36 39 41 39 38 39 43 46 50 52 55 59 62 64 70 76 81 85 85 84 87 92 97 93 93 91 86 84 78 77 77 70 63 63 60
24 26 29 30 32 32 32 32 31 33 35 34 33 37 38 39 41 44 48 50 51 53 55 58 63 69 74 74 73 82 88 85 80 87 85 86 84 74 67 67 64 60 57 41 30
25 27 31 31 30 29 29 30 29 33 33 31 33 33 34 36 35 34 36 40 44 46 47 49 52 56 61 64 64 64 68 68 75 71 66 60 60 64 66 57 47 36 31 21 21
25 27 28 28 28 28 30 30 30 29 29 29 30 30 28 26 25 24 23 25 28 30 34 35 35 36 39 42 45 50 53 57 58 59 61 54 45 48 44 37 29 25 21 20 22
26 28 28 29 30 30 29 29 27 27 25 24 23 23 21 20 21 23 26 29 31 32 33 35 36 39 39 38 38 36 34 32 28 31 35 35 33 34 31 26 25 21 21 22 23
28 30 31 32 30 30 31 31 29 25 23 20 20 21 24 25 27 28 28 27 28 28 26 24 24 23 23 21 20 18 18 18 20 24 25 24 25 24 23 21 22 23 24 26 27
34 34 34 32 34 35 36 32 29 26 20 22 22 24 26 25 22 20 19 18 17 16 15 16 16 16 16 17 17 18 18 19 20 20 21 22 20 19 20 21 24 27 28 29 32
36 34 34 35 34 35 33 30 22 24 25 23 22 20 20 17 14 14 14 13 12 14 15 15 15 16 17 17 17 18 18 18 18 18 20 20 19 19 19 22 26 29 30 31 30
41 40 41 41 37 36 32 26 24 24 21 19 19 17 12 11 11 10 10 10 11 12 14 16 17 17 19 18 18 19 20 21 21 20 23 22 19 21 23 27 27 26 27 28 26
43 41 40 36 35 34 33 27 23 19 17 16 14 13 12 11 10 9 8 7 9 11 13 17 20 21 22 22 22 22 24 26 26 25 22 25 25 29 28 27 26 26 27 27 30
39 40 37 35 34 33 28 24 21 21 18 16 16 15 14 12 9 6 7 7 10 12 14 15 17 20 23 24 25 26 27 27 27 27 28 30 33 21 30 28 28 29 29 32 36
41 37 34 33 31 28 26 24 22 20 19 19 17 17 14 10 8 6 7 9 10 10 12 14 16 16 19 22 26 29 30 30 31 34 34 31 34 24 28 31 31 31 33 36 38
38 35 32 29 27 28 27 25 22 21 20 17 16 14 10 8 7 6 7 9 8 10 10 10 9 11 14 18 21 25 29 32 33 33 36 33 35 30 31 33 31 32 34 38 42
34 32 31 30 30 28 26 24 23 22 18 16 15 13 11 11 8 6 4 5 6 9 7 6 9 11 13 15 18 21 23 27 31 34 37 36 36 33 34 32 33 36 39 41 42
35 34 32 30 29 27 26 23 23 20 17 16 16 13 10 8 7 5 4 5 5 5 5 5 6 6 8 10 11 14 18 20 20 24 29 35 37 32 34 36 36 38 37 40 44
36 36 34 32 31 30 26 25 22 18 18 18 16 12 8 7 7 3 4 4 3 4 4 5 6 8 9 11 11 12 12 14 16 18 22 26 33 29 35 33 34 36 40 43 50
37 33 33 32 32 29 28 25 20 16 16 17 13 10 11 9 7 5 7 7 6 7 8 9 10 12 14 14 15 17 18 19 20 22 22 26 34 29 30 33 37 40 46 51 55
36 37 35 33 31 31 29 24 21 16 15 14 12 12 11 7 7 7 6 7 9 10 10 12 15 16 19 22 22 23 23 25 27 29 29 29 35 34 37 37 41 47 49 54 56
37 36 34 32 32 31 28 24 21 17 15 15 14 13 12 11 11 10 10 10 11 12 13 15 17 18 21 24 26 25 24 25 25 27 31 34 38 37 41 44 47 49 53 56 58
39 37 34 33 31 30 27 23 21 18 17 17 17 16 14 14 13 13 15 16 17 17 19 20 22 23 25 26 28 29 29 30 33 34 34 39 36 43 44 45 49 52 56 61 66
40 39 36 33 32 31 27 24 22 21 20 19 20 19 18 18 17 17 18 19 21 22 23 24 26 28 30 31 34 35 34 35 37 38 38 42 45 47 48 50 54 55 59 65 69
41 40 37 34 33 30 29 27 25 24 23 23 23 21 20 20 21 21 21 23 25 26 27 28 30 32 36 37 42 44 42 42 42 41 41 45 48 50 52 52 58 63 67 73 74
41 41 38 37 35 32 30 28 28 27 26 25 25 25 25 25 26 26 27 28 29 31 33 34 34 35 40 40 47 48 47 46 47 46 47 49 50 50 52 58 64 69 74 76 78

GFSSW_250_spd_030.txt.gz
Wind_Speed
33 34 37 39 40 40 41 41 43 44 43 42 44 51 53 56 58 58 62 61 66 68 74 77 66 78 85 77 66 75 95 95 91 92 92 91 91 92 93 93 95 97 96 94 94
33 32 34 36 36 37 39 39 39 41 40 41 44 45 45 50 51 55 58 59 64 70 73 82 77 76 88 80 75 75 78 87 88 90 91 93 94 96 95 95 95 94 89 89 92
32 31 30 31 31 32 32 33 35 40 41 40 38 36 39 43 45 49 53 56 63 69 64 75 79 74 78 80 83 90 86 84 92 93 91 88 84 87 91 90 89 92 92 89 93
31 27 26 27 25 25 27 30 34 38 38 36 36 37 39 42 43 48 49 55 59 73 73 74 75 79 84 85 84 87 88 89 92 91 85 89 88 87 88 87 86 86 87 89 89
27 22 24 24 24 24 26 29 31 34 34 33 36 38 41 41 42 44 45 48 53 58 65 77 74 76 81 81 83 80 82 82 84 83 84 85 83 83 82 84 90 87 93 88 76
20 22 25 26 25 24 25 27 29 30 31 32 34 35 36 35 37 41 43 48 51 55 59 68 73 72 73 73 73 76 77 76 76 76 79 81 82 82 80 80 82 85 78 70 66
20 25 25 28 27 26 27 27 27 28 30 31 30 30 32 32 34 37 40 44 46 48 53 55 61 69 74 73 69 68 70 72 75 74 76 74 74 72 82 76 72 62 60 57 38
23 23 27 28 28 27 26 27 27 26 26 27 28 26 28 28 31 31 33 37 40 44 48 49 49 49 51 51 52 54 57 56 58 58 62 66 69 73 72 61 55 48 39 39 36
22 23 28 28 27 27 26 25 24 24 24 24 23 23 22 23 24 27 30 33 34 34 35 37 36 35 36 39 41 42 43 45 49 54 59 60 54 53 44 38 34 34 35 34 31
24 25 27 27 26 24 24 24 26 24 24 26 21 18 23 24 25 25 26 26 26 26 27 28 29 31 34 38 39 38 37 43 46 48 47 42 36 33 31 32 30 30 29 29 29
25 27 28 27 27 27 29 29 29 26 26 19 20 24 21 22 23 22 22 24 24 22 22 26 27 32 33 30 29 30 32 33 34 36 34 31 28 28 29 28 27 26 28 31 29
31 30 31 31 28 28 29 28 23 24 21 22 21 21 22 22 20 19 20 19 20 20 21 22 22 23 23 23 24 23 23 24 26 29 29 30 27 26 26 26 26 25 29 31 29
33 33 35 33 36 38 36 31 30 23 23 24 23 21 19 16 14 14 15 15 14 15 15 17 19 20 20 22 23 23 22 23 25 28 28 28 27 27 27 27 26 27 31 32 31
36 37 37 38 37 36 34 29 26 24 25 22 21 18 16 13 13 12 12 11 12 12 13 15 16 17 19 21 22 21 23 25 25 26 26 30 30 25 28 30 29 34 32 31 32
39 38 38 39 35 36 34 26 24 24 20 19 17 17 15 14 13 12 11 11 12 13 13 14 15 16 18 21 22 24 25 27 28 29 29 32 35 25 28 33 38 34 34 35 35
41 40 40 39 39 35 30 23 21 20 19 18 17 15 13 11 10 9 8 7 7 8 10 11 14 16 19 20 22 24 27 29 31 33 34 36 38 35 27 32 35 40 38 38 39
44 44 39 37 32 31 27 22 21 21 19 16 15 14 14 13 12 9 7 6 6 5 7 9 11 10 10 13 16 19 21 24 28 32 36 38 40 37 40 35 28 36 41 39 38
43 39 36 34 33 29 26 24 23 20 18 17 17 18 15 13 10 6 5 5 4 5 5 3 2 4 5 6 8 9 12 16 18 21 24 33 36 32 38 36 31 31 34 39 42
40 38 32 33 30 28 25 23 22 21 19 18 18 16 13 12 11 8 6 5 4 1 2 3 4 5 6 7 9 11 11 13 14 16 19 23 24 26 29 36 37 36 37 40 44
41 35 33 31 30 29 26 24 24 22 19 18 18 17 14 12 11 8 8 6 3 2 2 4 6 8 10 12 13 15 17 19 22 24 27 30 29 27 26 30 34 36 38 42 46
38 34 32 30 32 29 27 25 24 20 19 19 18 17 15 13 10 10 8 5 4 4 5 6 8 10 13 14 17 20 22 24 25 25 27 30 39 31 34 32 36 38 41 45 49
37 36 34 35 32 29 27 26 24 22 19 20 19 18 14 12 11 10 6 5 5 5 7 9 11 13 15 19 20 21 22 22 25 31 28 30 39 39 40 40 42 46 47 49 53
40 39 36 36 33 29 26 26 25 23 20 20 20 16 13 13 12 10 8 8 8 9 11 14 16 18 20 23 26 27 29 29 30 33 38 39 42 44 43 45 47 49 53 56 57
41 38 35 34 32 29 29 30 27 25 21 19 18 16 15 14 14 13 13 12 13 14 15 17 19 22 24 26 29 30 33 33 36 36 37 47 44 48 50 50 51 54 56 57 56
40 38 36 35 31 32 33 32 28 26 23 19 18 18 18 18 17 16 17 17 17 17 18 19 22 24 27 30 34 34 36 38 39 41 42 45 46 45 48 50 54 53 56 57 62
38 37 35 34 32 33 35 33 30 26 24 22 20 20 20 20 20 20 21 21 20 21 22 23 27 31 34 36 40 40 43 44 44 45 46 46 45 46 49 52 55 56 60 61 67
40 36 34 33 33 35 34 32 30 28 26 24 22 20 22 23 24 24 25 25 26 27 28 30 33 36 39 39 41 40 44 47 49 49 48 48 49 50 53 54 53 57 63 66 71

GFSSW_250_spd_033.txt.gz
Wind_Speed
33 38 38 36 37 39 38 38 38 39 39 41 39 38 36 39 42 46 51 51 57 67 65 64 65 65 77 99 101 94 84 88 81 76 80 86 83 81 91 78 81 93 90 88 92
32 33 33 34 37 38 36 35 36 36 38 40 39 35 36 39 43 46 46 49 52 55 61 61 66 63 63 76 96 92 87 76 76 76 80 78 84 82 81 84 79 86 93 96 97
31 29 31 33 35 33 30 32 34 33 36 38 36 33 35 38 43 44 46 47 48 52 54 60 66 66 68 71 76 83 82 76 76 75 78 82 81 77 82 87 92 93 94 90 89
27 29 30 31 30 28 26 27 29 32 34 34 30 28 31 35 37 40 44 47 48 52 58 65 71 67 68 66 72 77 80 79 79 72 74 75 77 77 92 99 97 96 100 91 90
27 30 30 29 25 22 21 23 25 27 28 28 29 28 31 34 36 37 41 43 48 49 54 68 66 71 71 71 72 75 77 80 79 76 79 79 80 83 84 88 87 88 88 88 89
27 31 27 23 21 20 19 20 21 23 26 29 28 27 29 29 33 33 34 39 45 48 58 73 66 70 66 74 75 75 78 79 82 86 89 82 81 80 82 85 84 83 86 88 83
29 27 23 20 20 19 18 18 19 20 23 25 27 28 29 31 31 32 34 37 42 44 48 63 68 75 66 67 62 77 77 82 81 84 82 81 85 83 81 82 82 81 75 76 75
27 22 21 21 21 19 18 18 19 20 23 24 24 24 26 26 27 29 32 33 37 41 44 49 55 65 74 71 73 71 73 78 78 83 82 84 80 81 78 77 75 73 69 68 69
20 19 21 22 22 20 19 20 20 22 22 23 23 23 23 23 26 27 29 32 34 36 39 43 47 49 53 60 65 80 78 80 83 80 79 77 73 68 63 58 58 57 52 49 31
18 20 22 23 24 23 21 22 23 22 22 22 23 23 22 21 22 23 25 28 30 33 35 36 37 38 41 46 48 51 53 53 57 58 58 55 53 51 48 44 44 38 34 30 34
19 22 24 25 24 24 24 23 24 23 24 25 19 22 18 19 19 19 20 22 24 26 29 30 30 32 34 36 37 39 38 36 40 41 43 40 36 41 34 36 35 33 32 32 33
24 24 28 27 27 26 27 25 28 29 30 31 19 19 22 20 18 19 20 21 21 21 22 24 23 24 26 27 29 30 29 32 34 35 34 35 31 36 32 33 33 34 34 34 34
26 27 30 31 33 35 33 33 30 31 30 26 25 22 24 22 20 19 19 20 19 19 19 21 21 20 21 22 21 23 26 26 28 30 29 31 29 31 35 30 31 34 36 36 35
30 29 34 34 33 34 36 36 32 24 24 24 24 23 23 21 19 17 15 14 15 14 14 14 15 16 17 19 18 24 20 23 23 27 26 30 29 27 34 34 32 37 39 35 38
34 35 34 34 38 35 31 33 35 24 22 22 23 24 22 19 16 16 12 11 10 11 13 14 16 18 19 19 19 22 21 21 22 23 28 31 33 27 25 34 35 41 34 31 38
40 38 38 37 37 38 34 35 31 26 25 26 24 22 19 17 15 12 10 9 10 12 13 14 15 15 15 16 16 17 19 21 23 25 28 35 35 33 30 30 32 41 43 40 40
45 43 41 41 40 39 33 28 30 28 26 23 22 19 18 16 13 11 9 8 8 8 9 9 10 9 7 7 7 11 14 17 20 21 25 27 32 27 23 23 29 34 36 39 41
47 44 39 39 41 36 31 25 28 24 23 21 19 18 15 14 13 10 8 6 5 4 4 2 2 1 1 2 3 4 6 7 9 11 16 19 21 25 27 23 20 25 31 33 38
46 44 42 39 37 37 29 25 25 24 21 19 18 17 16 14 11 9 5 6 5 2 3 5 4 3 2 3 4 7 10 13 16 20 22 18 22 24 29 30 28 29 30 32 38
44 41 39 35 31 29 26 30 27 24 21 19 18 18 16 12 11 8 9 6 4 4 2 0 1 3 4 7 10 13 15 18 19 21 27 29 27 27 29 34 35 35 36 39 44
44 45 36 34 33 29 32 30 26 23 22 20 19 17 14 13 11 11 8 6 6 5 5 4 4 5 8 11 14 16 18 20 23 23 24 31 38 32 34 37 40 43 44 46 47
42 38 33 33 31 30 31 29 25 24 23 20 19 18 17 12 12 11 9 8 9 8 7 7 8 11 12 14 16 18 20 22 25 30 29 33 40 41 39 44 45 46 48 48 49
39 37 33 30 31 33 32 29 26 25 23 21 19 18 16 14 14 11 11 11 10 10 9 10 11 14 16 19 21 23 25 27 29 32 39 40 44 40 39 44 43 45 49 49 53
40 35 33 32 33 33 30 29 27 26 23 20 20 19 18 14 13 13 14 13 12 12 13 14 14 15 17 19 23 26 29 32 34 35 37 41 42 47 48 43 49 49 48 52 55
39 38 38 34 39 34 29 27 27 27 24 20 20 20 18 15 15 16 16 15 15 16 16 16 18 19 22 26 29 33 35 37 37 39 41 44 45 45 51 53 49 49 51 53 56
42 41 38 36 34 32 30 28 28 29 26 25 20 19 18 19 19 18 18 18 18 19 19 21 23 26 29 33 35 39 39 41 40 41 44 45 47 48 50 51 53 54 56 56 58
43 40 39 37 34 34 31 29 30 31 26 24 22 20 23 17 18 19 20 20 21 22 25 25 29 33 37 39 42 41 43 45 46 45 48 46 50 53 54 55 54 54 57 59 61

GFSSW_250_spd_036.txt.gz
Wind_Speed
40 37 38 39 39 40 40 38 38 38 38 38 38 36 34 35 38 40 41 43 45 50 53 59 65 65 63 66 53 97 94 95 93 92 81 78 83 82 78 76 80 80 83 86 92
36 36 36 38 38 36 36 35 36 37 38 38 37 31 31 36 35 38 38 39 44 46 51 55 52 50 57 56 57 57 79 93 94 94 92 88 80 80 82 81 72 74 81 77 81
35 35 36 33 33 33 33 33 34 37 36 35 36 34 32 34 33 38 37 39 41 43 52 53 59 56 50 52 61 61 71 83 80 89 89 88 90 86 77 78 86 83 83 78 80
32 32 32 29 30 31 31 29 31 35 33 32 31 31 31 32 35 38 38 40 41 44 52 62 64 68 59 55 53 56 57 67 72 74 80 79 81 76 79 86 80 80 79 76 81
27 32 29 28 30 29 27 25 26 25 26 28 28 31 33 31 34 39 39 40 37 40 42 62 65 60 57 59 63 65 64 63 68 75 74 74 79 82 80 74 76 80 78 76 75
31 28 26 30 27 24 21 20 19 18 22 26 30 33 31 29 32 33 36 40 42 43 44 55 66 70 67 66 67 65 64 65 64 69 72 74 80 82 80 80 75 73 75 81 81
28 26 28 28 23 19 18 16 16 18 22 27 30 30 28 30 32 34 37 36 42 49 48 53 56 62 65 68 71 66 64 66 61 64 71 74 76 76 80 77 80 83 82 83 88
25 26 29 25 17 19 17 16 17 18 23 28 28 28 27 26 29 31 34 35 38 41 43 49 51 62 66 68 67 67 71 67 70 69 69 72 79 79 78 82 81 83 84 88 87
25 26 25 17 20 19 17 17 19 20 23 26 27 27 26 25 25 26 27 28 32 35 38 40 42 51 61 59 60 64 69 64 71 70 72 69 75 82 77 79 82 82 84 84 83
23 23 18 20 20 21 21 20 22 23 25 26 27 26 25 24 24 23 24 25 26 29 30 32 36 39 44 49 54 61 60 75 70 64 70 74 72 74 76 81 80 78 74 66 58
18 19 18 22 23 24 24 23 23 24 25 26 24 22 24 24 26 24 24 24 25 27 30 31 34 35 35 38 40 44 50 53 54 58 59 56 52 54 55 51 50 48 47 48 47
17 19 23 24 25 25 25 27 27 27 27 28 28 26 24 25 22 21 20 22 23 24 25 26 29 31 32 32 32 33 34 36 36 39 40 37 40 43 41 39 40 39 41 43 42
19 24 25 27 30 29 29 27 27 29 28 29 28 29 28 26 24 20 18 18 19 20 18 16 18 18 18 20 24 27 29 34 36 35 33 32 33 33 34 29 33 39 43 43 38
24 25 31 33 33 31 30 31 31 30 30 24 25 26 24 21 18 17 16 15 15 14 16 18 19 22 21 23 26 27 27 28 28 28 25 29 26 28 28 30 35 41 44 45 39
29 32 35 35 34 34 36 34 32 31 28 23 25 25 24 22 20 17 16 16 17 17 18 18 19 19 18 21 23 23 23 24 23 25 30 24 28 26 27 34 39 41 42 45 46
33 33 35 36 39 39 39 36 35 31 25 26 24 23 23 21 19 18 18 17 16 13 13 12 12 13 14 15 17 19 21 23 23 27 27 24 21 22 22 29 30 34 38 43 44
37 37 39 43 44 42 38 36 31 30 25 25 24 25 23 21 19 18 16 13 11 10 9 10 11 12 12 11 12 12 13 13 13 13 8 8 9 11 11 12 15 20 23 26 28
42 44 45 46 43 40 36 34 32 28 27 27 27 25 23 22 19 15 12 9 7 7 8 8 9 8 7 6 5 2 1 3 6 8 9 13 19 21 19 21 24 27 29 31 34
49 48 48 43 40 38 36 35 28 27 28 29 26 25 22 18 15 11 10 9 7 7 8 11 10 9 8 7 4 4 6 10 13 15 17 18 20 21 23 26 28 30 33 36 38
51 49 45 38 40 41 31 31 32 33 31 28 25 22 19 15 13 12 9 8 8 9 10 9 7 5 3 3 5 8 11 13 17 20 23 23 23 26 29 31 32 35 38 41 45
52 48 40 43 40 39 31 29 33 32 28 24 22 20 18 16 14 11 9 9 10 9 8 7 5 4 5 7 9 11 14 18 21 22 26 31 30 31 34 37 36 37 39 41 43
52 45 40 44 40 36 30 29 32 29 25 22 21 20 18 15 11 11 12 12 10 10 9 8 7 8 10 12 14 15 17 20 24 27 28 32 35 37 39 40 41 42 42 43 44
51 46 43 40 37 31 29 30 30 27 25 22 20 20 18 15 12 13 13 13 11 11 10 10 11 12 14 15 15 17 20 24 28 32 36 36 39 40 42 44 46 46 46 46 47
49 45 40 37 33 29 30 34 30 26 24 22 19 19 17 16 15 16 15 14 13 13 12 13 15 16 17 18 20 23 26 28 30 34 36 37 39 43 45 46 49 53 55 56 55
45 46 45 34 34 33 36 35 31 27 25 22 20 19 18 16 18 17 15 15 15 15 15 16 18 18 18 21 25 29 33 35 36 39 39 40 41 44 48 50 51 53 56 58 57
45 45 35 34 31 34 36 33 30 28 24 22 19 19 20 22 21 18 15 15 15 17 18 19 20 21 22 26 30 33 36 39 39 43 44 45 47 49 52 54 57 58 59 60 57
46 39 38 33 34 34 35 31 30 25 24 24 23 22 21 19 17 17 15 14 17 19 19 21 22 23 25 26 29 33 38 40 43 48 50 53 55 57 59 61 61 61 61 58 57

GFSSW_250_spd_039.txt.gz
Wind_Speed
72 61 57 47 43 40 40 40 40 38 38 39 40 37 39 41 43 40 36 40 44 45 48 50 53 60 63 65 68 71 75 75 81 93 92 97 96 85 81 83 77 75 76 75 75
63 56 50 42 39 40 38 39 38 35 36 39 38 36 37 39 40 38 35 36 38 40 43 46 48 55 56 54 55 60 61 66 70 72 85 96 89 82 78 76 74 78 79 81 81
59 55 44 37 37 38 36 34 33 35 37 38 35 35 37 37 38 36 34 36 38 38 41 42 44 47 48 46 39 36 51 50 57 62 64 74 89 89 86 84 80 83 80 79 75
55 50 38 34 35 37 33 30 31 34 34 34 34 35 37 38 34 34 32 37 38 38 37 36 41 41 43 48 43 40 38 42 52 55 56 63 69 82 74 72 73 77 67 70 69
53 41 33 30 34 33 29 29 29 32 32 33 33 33 35 37 29 29 30 35 36 33 32 32 38 41 48 53 53 50 51 49 45 46 50 54 57 61 59 59 64 66 69 68 73
45 30 30 33 32 29 28 26 27 26 24 28 30 33 34 34 29 27 29 34 34 35 34 38 40 49 50 54 49 55 51 60 57 53 54 64 64 64 69 65 66 64 69 71 76
38 31 33 31 31 29 27 23 20 18 21 26 30 33 33 31 27 28 31 36 36 38 36 34 40 49 58 64 56 49 49 45 52 59 60 62 61 63 60 65 67 72 76 75 73
35 34 32 30 31 27 23 17 17 18 22 26 31 31 30 30 30 31 34 38 35 34 33 33 39 44 59 62 65 60 58 53 58 60 58 63 64 66 64 62 65 69 72 74 77
32 29 30 30 29 22 16 17 18 20 23 27 30 33 33 33 31 30 33 36 36 37 37 37 37 39 47 57 61 62 63 65 62 64 64 61 63 66 70 67 68 71 73 77 78
28 28 30 30 23 16 19 20 20 21 24 27 30 30 29 28 28 27 29 29 30 29 29 34 34 36 40 46 54 57 65 65 65 62 57 65 70 68 66 71 73 75 72 75 73
27 27 30 27 18 19 22 22 23 25 26 28 30 28 25 23 23 25 23 22 21 23 28 30 31 31 30 35 39 41 51 59 54 57 56 63 57 62 69 67 58 57 56 52 49
27 27 28 20 19 24 26 26 27 28 29 30 31 30 28 28 25 25 26 26 26 26 25 25 26 27 28 31 34 36 37 38 41 44 45 50 52 49 43 41 43 45 47 47 44
25 25 21 20 25 29 29 29 28 27 29 29 29 29 30 28 27 25 23 23 23 23 22 22 21 21 23 27 30 32 34 31 30 28 28 30 34 36 36 37 40 41 44 43 38
22 22 22 26 30 30 30 28 28 27 28 29 28 28 28 27 25 25 24 22 18 17 18 18 18 18 20 21 23 25 26 27 28 28 27 29 30 31 32 33 36 42 44 39 37
20 23 27 30 32 30 30 29 28 28 30 30 29 27 28 26 24 22 18 15 16 15 16 16 17 21 23 23 23 24 25 27 28 28 24 26 26 28 30 33 36 39 43 44 45
21 28 31 34 33 34 34 34 35 34 28 24 28 28 25 23 19 16 17 18 18 17 17 17 17 19 20 20 20 21 22 24 24 25 22 21 20 23 24 27 27 27 29 32 32
27 32 35 35 37 38 38 37 37 34 25 24 23 23 21 21 20 19 17 16 16 16 14 15 17 18 18 16 15 14 14 12 11 10 10 8 9 11 13 18 22 26 29 32 36
35 36 37 39 42 41 40 36 35 31 27 25 22 20 20 21 20 19 16 14 13 12 12 13 13 12 11 11 10 8 6 5 4 3 5 8 12 15 17 20 24 28 32 36 40
39 39 41 42 43 41 38 35 32 28 24 26 23 23 23 23 20 19 17 15 13 11 10 9 8 9 10 9 8 6 4 4 7 9 11 14 18 21 22 24 27 32 34 37 39
44 43 45 46 45 43 38 34 33 30 28 25 25 26 26 24 22 18 15 12 11 10 9 12 12 12 10 9 6 5 7 9 12 14 17 20 22 24 27 30 32 34 36 38 41
47 48 48 48 46 41 34 36 32 27 27 29 28 27 25 23 20 16 13 12 11 12 12 11 11 10 9 7 6 9 12 14 17 20 21 22 25 29 32 34 35 38 40 43 45
52 52 51 47 42 36 37 33 28 28 30 30 30 28 24 20 17 15 12 11 12 13 13 11 11 10 10 10 12 14 15 18 20 22 25 27 30 34 36 38 40 42 43 43 44
58 56 50 43 39 42 35 32 31 32 31 31 29 26 22 18 16 12 13 13 14 13 12 11 11 12 12 14 17 18 19 21 24 29 31 34 35 37 40 41 43 44 46 48 50
62 54 50 44 45 42 36 33 32 34 32 29 26 24 21 19 16 14 15 16 16 15 14 13 14 15 16 18 19 20 22 25 28 31 33 34 36 38 43 47 50 53 54 55 55
57 51 46 44 41 39 35 33 33 34 31 26 25 24 22 21 19 16 17 17 17 16 15 16 16 18 20 21 22 24 26 27 28 30 33 38 43 47 50 53 54 53 55 56 58
58 51 45 47 46 42 35 32 33 32 30 27 25 23 21 21 19 18 16 17 18 19 18 18 19 21 22 22 24 26 27 28 32 35 38 41 47 51 54 56 57 58 58 58 58
58 53 47 42 40 36 32 31 34 33 30 28 26 24 21 19 18 16 18 21 20 20 20 20 22 23 25 24 26 29 30 33 38 43 45 47 52 56 56 60 61 61 60 59 61

GFSSW_250_spd_042.txt.gz
Wind_Speed
70 73 70 68 61 60 56 43 35 35 33 34 36 40 39 39 41 44 43 44 43 44 47 47 48 46 49 53 56 61 62 64 68 68 68 69 73 92 93 86 79 76 73 72 72
73 75 73 64 61 60 47 36 33 31 34 33 34 38 38 38 40 41 40 41 39 40 41 36 37 41 43 46 48 50 53 55 59 64 65 70 70 79 88 90 80 82 80 78 76
72 72 71 62 60 53 40 35 32 31 32 34 35 39 40 38 36 34 36 36 34 33 31 33 35 36 39 40 42 44 47 41 40 49 62 66 70 71 72 80 86 80 82 79 74
71 70 65 64 58 46 35 30 29 31 33 36 38 40 39 34 32 36 33 33 31 29 28 30 32 32 34 34 35 38 43 49 47 49 52 54 56 60 65 66 72 70 67 69 74
71 70 62 61 52 36 31 30 29 31 32 37 36 35 34 29 31 30 30 32 28 26 27 29 29 27 29 30 33 33 30 32 30 34 44 43 47 48 52 54 56 55 56 54 64
70 69 60 53 43 38 34 32 29 32 35 34 33 33 31 26 29 30 29 28 26 28 30 28 25 24 29 34 37 38 40 33 32 29 35 46 46 45 43 46 50 50 53 53 58
70 67 58 52 42 36 34 30 34 34 32 29 27 29 26 27 30 31 28 27 25 28 32 27 29 29 31 38 42 44 37 35 35 39 40 42 41 41 43 45 48 50 55 56 65
68 63 56 47 36 35 32 33 36 31 27 23 22 24 25 30 31 32 30 28 27 31 32 28 27 28 29 37 41 40 45 38 46 44 45 48 49 50 50 53 58 61 64 63 70
68 59 52 43 32 30 31 35 31 27 22 20 21 22 28 31 34 33 28 26 29 28 29 30 28 27 24 28 40 44 44 42 43 46 50 47 48 52 57 62 61 61 66 66 69
65 54 48 39 26 30 33 33 25 20 17 16 19 24 30 33 30 26 22 25 29 29 28 28 26 25 25 27 31 34 44 52 51 49 52 56 55 56 58 61 63 65 68 69 71
62 51 45 31 25 33 31 25 20 17 15 17 23 27 28 26 23 19 19 24 26 29 29 28 29 29 30 30 33 33 34 37 43 52 55 55 60 63 60 64 61 62 60 60 55
63 47 40 27 29 31 25 22 19 18 21 24 27 28 29 27 23 22 21 23 24 26 26 24 24 27 31 31 33 33 36 39 37 42 45 48 52 55 54 50 46 46 45 43 42
57 43 33 26 31 23 23 23 22 22 23 26 28 28 26 25 24 23 23 24 23 21 22 23 24 26 26 27 28 27 28 31 33 35 39 40 41 42 39 37 37 35 35 36 36
48 40 28 29 24 21 24 24 23 24 26 27 28 29 27 26 25 24 21 20 21 21 22 22 22 23 25 26 24 23 23 25 27 29 30 31 33 35 34 34 35 36 38 38 36
44 35 28 28 19 23 26 26 26 24 23 24 25 25 25 24 23 22 18 20 20 17 15 16 17 18 18 18 19 21 22 22 22 23 23 25 26 30 31 33 33 34 35 36 35
40 32 28 24 21 25 29 28 27 26 26 25 25 26 26 25 23 23 21 17 16 17 17 15 14 15 15 16 18 18 19 20 20 21 23 24 25 30 29 29 29 28 25 27 30
38 31 28 24 26 29 31 29 29 28 29 29 28 26 25 25 22 19 18 16 16 14 13 14 15 16 16 18 19 20 20 20 20 22 20 20 20 20 19 18 21 24 27 31 33
40 33 28 28 31 33 32 33 32 31 30 30 29 27 23 22 21 20 16 15 15 15 15 16 16 16 17 19 20 18 15 12 10 9 8 8 10 14 17 20 23 27 31 35 38
42 34 31 32 35 35 36 35 35 32 26 28 24 23 23 22 19 17 16 17 16 15 15 14 14 16 18 16 13 9 8 9 7 7 8 10 13 16 21 24 28 31 34 38 41
41 36 36 37 37 38 40 39 38 33 29 29 26 26 23 22 20 19 18 16 14 13 13 14 14 13 11 8 6 7 8 7 7 9 11 15 17 20 22 25 29 33 37 40 43
40 37 40 41 41 41 42 40 37 32 29 28 26 22 23 23 20 19 17 16 14 12 12 10 9 10 8 8 9 8 7 9 11 12 15 19 20 23 25 29 33 35 39 43 46
42 43 44 43 45 45 41 37 35 30 27 26 24 25 24 23 21 19 18 16 14 13 13 12 12 10 8 8 8 9 11 13 16 18 20 22 27 29 31 33 34 36 40 43 45
46 48 46 47 49 46 42 36 33 30 27 26 26 26 25 25 23 21 17 16 15 15 15 13 12 11 10 9 11 13 15 18 19 22 24 27 28 31 33 35 37 41 45 46 48
53 51 50 52 52 47 41 36 37 29 24 27 29 30 28 26 23 21 19 17 15 14 13 13 12 11 10 11 14 17 20 21 23 26 28 29 32 34 39 40 44 47 49 51 55
54 51 53 52 49 47 38 37 35 30 30 32 32 30 29 26 23 22 17 15 14 14 14 14 13 13 13 16 18 21 24 26 28 27 29 34 36 42 43 46 50 49 52 57 63
55 56 55 56 52 46 41 39 35 33 34 35 33 31 29 25 23 19 17 16 16 15 16 17 19 19 18 20 21 24 27 28 31 30 34 38 43 46 50 55 56 56 57 63 66
60 62 59 54 49 42 45 41 37 36 37 35 33 30 27 24 21 20 18 17 19 22 21 21 22 22 24 23 24 29 30 29 31 34 38 42 45 50 56 59 60 59 64 68 71

GFSSW_250_spd_045.txt.gz
Wind_Speed
60 64 66 68 70 69 69 65 57 42 29 25 25 27 30 31 33 36 38 39 36 36 37 39 40 41 43 44 48 49 49 48 55 61 66 68 71 72 75 75 76 81 84 87 83
61 61 68 69 72 68 67 62 52 37 29 26 27 28 28 29 31 34 35 35 35 35 33 32 36 37 38 36 37 38 43 45 50 54 55 62 61 64 69 70 67 69 74 71 75
61 62 68 69 70 66 66 63 47 34 25 24 27 27 28 29 30 31 33 33 32 31 29 28 31 31 31 30 29 33 33 34 41 45 44 45 59 59 63 65 64 63 64 62 69
61 61 69 69 69 63 62 59 45 34 26 28 29 32 31 30 31 29 30 31 29 28 25 25 27 27 25 24 26 27 29 32 35 36 42 42 44 54 55 57 53 55 58 65 66
62 64 66 69 70 62 61 55 43 32 30 29 31 32 32 29 27 26 29 31 28 27 26 25 24 22 23 23 25 27 29 32 37 40 38 38 41 40 46 51 53 55 60 62 67
62 66 68 67 71 60 61 53 39 34 30 31 33 33 28 26 24 24 29 28 26 28 26 23 23 23 25 23 24 27 30 32 34 32 34 34 36 37 40 40 40 46 50 55 58
62 65 67 66 69 59 59 51 38 34 32 34 31 27 23 24 23 25 27 28 26 28 24 24 23 22 23 24 24 28 28 35 33 38 31 30 29 32 36 40 41 39 42 43 47
63 64 67 67 69 57 57 44 34 32 33 32 27 19 19 20 25 26 27 28 26 25 26 26 24 22 22 21 26 31 30 28 24 23 21 22 20 24 32 37 40 44 48 49 50
64 64 66 67 66 55 54 38 37 33 32 26 19 15 16 20 24 28 27 26 25 26 27 29 26 22 20 19 18 29 30 29 33 33 30 30 34 37 40 41 42 45 48 50 55
66 60 65 68 65 54 51 36 37 31 26 19 14 15 15 23 28 28 27 24 25 23 25 25 22 19 18 19 19 23 31 41 39 38 37 40 42 41 43 46 49 52 54 55 57
66 60 63 65 62 51 45 36 37 27 19 17 14 13 19 27 27 27 24 22 21 25 25 27 21 20 22 22 23 20 21 28 31 40 43 42 45 45 48 52 57 54 58 59 60
70 60 61 65 61 52 39 36 34 21 17 16 12 15 23 26 27 27 23 22 22 24 24 24 26 27 25 26 24 24 25 23 23 30 40 44 47 47 49 47 45 48 50 56 49
68 62 60 62 56 49 36 35 26 17 17 14 14 21 26 26 28 26 25 26 26 24 25 25 24 23 24 26 27 27 25 26 29 30 32 33 35 35 36 43 48 40 43 45 43
69 65 59 54 52 41 33 28 19 17 16 16 20 27 29 28 25 23 22 22 23 24 25 23 24 24 24 23 23 26 26 26 26 28 29 30 32 33 37 40 37 36 35 34 36
67 61 58 50 47 34 29 22 17 17 16 19 25 28 28 27 24 22 22 21 20 20 20 22 23 22 21 20 20 22 24 25 24 25 28 30 31 32 30 29 29 30 30 31 29
61 58 56 49 42 33 24 20 18 20 21 23 26 26 24 23 22 19 18 18 18 19 20 21 18 17 17 19 21 22 20 21 23 25 26 26 27 26 25 25 25 24 21 20 24
59 51 56 50 38 31 22 23 23 22 24 26 26 25 23 22 21 22 22 23 21 18 18 19 19 19 20 20 19 18 20 22 23 21 21 23 22 21 19 15 14 17 21 23 26
62 54 51 45 34 28 24 26 28 26 25 25 24 23 23 23 24 24 20 19 20 19 17 16 16 14 14 13 13 13 14 15 16 16 13 9 6 7 10 14 18 19 23 26 30
64 53 50 46 34 27 29 28 29 28 26 26 26 27 28 27 24 24 22 20 18 16 14 13 12 13 14 13 12 14 14 14 12 8 6 7 9 12 14 17 20 24 27 30 33
55 51 51 44 38 29 34 31 32 30 29 29 30 30 25 25 24 23 20 17 15 13 12 13 14 14 12 11 12 14 14 12 9 8 9 10 12 14 17 20 23 27 29 31 35
56 47 48 39 39 35 37 34 35 34 32 31 32 28 25 25 24 21 17 15 14 13 13 12 11 10 11 13 12 12 11 9 8 8 10 12 14 17 20 23 25 28 31 34 38
54 47 44 39 36 42 39 39 40 36 31 31 29 28 25 24 21 18 18 16 14 14 12 11 11 11 12 12 13 12 9 8 8 10 13 16 18 20 23 24 26 30 33 37 42
51 48 41 43 40 46 43 45 43 37 31 33 30 27 26 24 21 21 20 18 17 14 14 14 14 13 13 12 10 8 8 10 12 14 16 19 21 23 24 26 32 34 38 42 44
45 41 45 42 50 48 49 47 43 39 34 32 30 27 28 25 24 22 20 19 18 16 15 15 14 14 12 12 11 10 12 14 16 18 21 23 25 25 30 33 36 40 41 44 48
40 44 47 45 51 49 51 49 44 39 34 28 27 30 27 25 24 23 21 19 17 16 15 14 14 14 13 13 13 15 18 19 20 23 25 28 30 29 34 38 41 44 46 51 56
45 51 46 57 56 56 52 50 44 38 34 31 31 30 26 27 27 24 23 20 18 17 16 15 16 17 17 16 17 20 24 23 24 27 29 31 34 34 40 43 46 50 52 57 60
52 52 58 59 57 57 54 49 42 40 36 32 32 30 28 29 27 25 24 21 19 20 20 19 19 19 20 21 20 25 29 27 29 31 33 35 37 40 44 48 53 55 60 63 66

GFSSW_250_spd_048.txt.gz
Wind_Speed
66 67 64 63 64 65 66 67 65 63 59 47 28 26 24 24 22 25 28 32 34 35 35 37 37 39 40 42 45 47 48 50 51 54 55 58 59 65 67 70 75 77 76 78 76
69 68 65 62 61 66 66 67 65 60 58 44 29 23 21 22 20 23 27 30 34 34 33 32 34 33 34 38 40 39 42 42 44 51 55 56 57 62 64 66 70 73 73 75 76
70 67 63 62 62 65 66 67 62 61 56 44 30 26 23 20 20 21 24 29 31 32 32 31 31 28 30 31 29 30 32 34 38 42 47 50 53 57 59 60 66 67 65 65 66
70 66 62 62 63 64 65 66 63 60 56 45 31 29 27 24 22 25 26 26 29 28 27 27 27 23 24 22 22 25 27 28 33 37 40 40 40 46 53 55 56 56 56 58 62
66 68 62 65 66 64 65 64 60 60 57 43 33 28 30 29 27 29 27 27 27 25 25 25 22 21 22 22 23 25 26 28 31 31 35 36 38 36 43 47 47 48 47 48 52
69 68 61 66 67 65 65 64 60 60 55 41 30 30 34 30 26 23 23 25 26 26 25 24 21 21 21 24 24 26 26 26 29 32 32 31 35 33 34 36 35 37 46 47 46
72 66 66 65 69 65 67 64 59 58 51 40 30 35 36 27 20 19 21 23 25 25 27 26 23 22 26 24 27 27 25 26 26 27 33 31 35 34 35 31 30 32 35 36 38
67 66 68 65 70 66 66 63 58 58 51 38 35 36 25 18 16 18 20 21 25 27 28 26 26 26 29 27 23 25 25 30 29 30 30 33 32 26 30 30 33 35 35 33 37
69 68 67 65 68 66 64 64 57 56 47 37 35 29 18 14 14 19 21 25 27 28 30 27 29 27 26 25 23 23 24 25 31 32 31 33 33 31 31 28 29 30 30 32 34
74 70 66 66 66 64 63 59 55 53 42 38 29 23 16 13 14 22 24 26 27 31 29 29 27 24 24 22 19 17 26 24 26 30 25 22 21 22 18 29 37 30 35 40 45
77 76 67 66 63 62 61 55 53 48 37 35 25 18 14 13 18 24 26 26 29 30 28 31 27 23 22 19 18 14 24 28 30 30 27 25 28 33 36 33 34 40 46 48 49
70 64 64 65 62 61 56 52 50 42 37 28 21 15 12 15 22 26 27 29 29 25 26 27 27 24 20 19 21 26 27 25 29 37 38 38 40 38 39 40 46 49 49 48 50
70 62 64 60 62 61 51 48 45 36 30 20 16 11 12 19 26 26 27 28 26 26 29 30 26 25 24 21 22 23 24 26 27 27 35 38 41 47 49 48 46 48 52 50 50
64 68 64 64 64 63 52 45 40 33 23 17 12 10 18 24 27 28 28 28 26 27 23 25 26 25 25 24 25 26 26 26 27 27 30 31 32 33 35 35 36 36 38 40 38
67 69 69 65 65 57 47 41 33 28 18 15 12 17 23 27 29 29 28 29 27 25 25 25 24 25 25 25 25 25 27 28 28 29 29 30 31 30 29 31 32 32 33 33 31
66 66 67 65 64 51 44 37 28 23 15 13 16 23 25 25 26 25 25 27 26 23 22 24 25 24 24 24 23 23 24 25 25 26 28 27 28 26 27 28 29 27 25 21 19
69 64 62 66 62 45 41 31 27 21 15 15 19 24 26 25 23 22 22 22 23 23 23 24 22 22 23 23 21 19 19 23 26 26 24 24 24 23 22 20 16 13 13 16 19
71 66 65 64 60 48 35 30 25 18 18 19 22 25 25 23 23 22 21 21 21 19 19 20 20 21 19 17 17 20 22 22 21 19 20 21 17 13 9 9 12 13 15 18 22
71 65 63 62 56 42 33 33 23 21 23 23 25 26 26 26 24 22 24 22 22 21 20 20 20 19 19 21 23 24 21 19 19 18 16 12 10 9 9 11 13 15 18 21 25
69 65 64 59 47 38 30 32 23 25 27 27 27 28 28 27 27 29 26 21 20 20 20 20 20 20 19 19 19 18 15 14 13 13 13 11 8 9 12 14 16 19 21 21 24
68 65 59 58 45 34 32 33 25 30 30 30 30 29 28 28 29 26 26 24 23 20 18 17 15 16 17 17 16 15 12 13 13 11 10 10 11 14 16 18 20 20 20 24 27
69 64 57 55 46 37 35 31 28 34 34 33 32 29 29 30 28 24 23 23 21 19 17 16 16 16 15 17 18 18 17 16 13 12 13 14 15 18 20 22 22 23 26 30 33
69 65 60 54 44 41 39 32 35 38 38 35 33 33 34 29 27 25 24 23 20 18 17 15 16 16 18 18 16 15 16 16 15 15 16 19 19 21 23 25 27 29 31 35 38
66 62 52 46 46 46 38 36 42 43 41 38 36 34 33 30 28 27 25 22 19 18 15 16 17 17 16 16 17 18 17 17 17 17 19 23 24 24 27 31 32 34 36 40 43
61 59 44 47 46 45 40 44 47 46 44 39 37 34 33 31 29 27 25 23 21 19 17 17 17 16 17 18 18 18 19 20 19 19 23 26 28 27 30 34 36 39 42 47 49
50 50 51 51 52 49 45 50 50 51 47 41 36 36 33 31 30 27 26 24 22 21 19 20 19 21 22 22 22 20 23 24 21 24 27 28 34 35 36 39 42 44 48 52 55
51 50 55 55 50 48 49 52 56 54 50 43 34 36 33 32 31 29 28 25 24 23 23 23 23 24 25 23 22 25 28 25 26 30 31 33 36 38 42 44 46 48 53 57 61

GFSSW_250_spd_051.txt.gz
Wind_Speed
54 57 59 61 66 68 70 67 65 67 69 66 60 56 41 32 26 23 22 28 29 34 36 37 40 39 40 41 45 48 49 50 51 48 46 48 58 68 68 68 68 70 66 66 69
55 56 60 61 67 71 69 71 65 68 71 67 64 56 39 29 25 19 22 22 26 28 29 31 32 36 35 38 40 43 44 47 41 31 20 40 52 59 61 62 63 66 68 67 66
54 57 61 64 67 71 65 70 67 67 70 67 61 55 39 28 25 24 22 22 21 27 31 30 30 30 31 31 33 33 36 36 35 37 40 54 55 51 53 49 55 61 62 55 60
54 56 62 66 66 69 68 72 68 68 70 69 60 55 40 29 25 25 27 26 24 24 28 28 26 26 24 27 28 24 25 29 30 37 49 45 43 43 47 53 54 54 56 53 54
56 59 62 67 70 71 70 73 74 66 71 68 61 55 38 30 28 29 31 33 28 24 24 25 25 22 20 22 25 25 26 30 26 33 33 31 31 39 41 46 47 45 43 44 44
57 60 62 69 72 72 72 74 77 67 68 69 63 53 34 34 35 32 28 28 26 25 25 24 24 22 23 22 22 24 29 28 29 30 30 29 31 33 33 28 26 29 32 37 38
57 61 64 65 70 69 73 77 76 67 68 66 63 47 36 37 31 27 23 20 23 25 27 27 24 25 20 23 24 28 28 27 29 30 30 34 35 31 28 30 24 23 21 22 26
57 61 62 67 67 70 72 73 68 64 63 66 60 44 39 29 24 20 15 18 21 27 29 28 28 26 25 27 29 31 26 25 26 25 24 25 28 26 24 22 28 30 26 24 27
59 63 65 67 68 70 73 71 64 61 62 65 56 43 35 23 18 14 14 19 24 28 30 28 29 27 26 29 30 25 25 24 23 25 23 24 26 24 25 24 29 30 29 29 33
59 61 64 66 68 70 70 70 59 64 63 61 52 41 27 22 14 9 18 20 26 30 29 30 29 28 28 32 28 23 21 21 21 24 21 24 26 27 29 30 31 32 32 29 31
61 61 65 67 69 70 71 62 60 66 61 61 49 34 24 19 13 11 20 24 28 30 32 31 27 29 28 29 21 17 17 19 19 20 24 26 22 21 23 27 20 28 29 33 35
64 63 65 68 69 70 70 66 64 62 63 58 42 28 21 16 12 18 22 25 27 28 31 29 29 28 27 25 20 16 18 26 23 22 25 29 23 21 27 33 35 35 37 43 46
66 65 66 68 67 67 68 68 67 60 64 54 36 25 20 12 12 23 23 23 26 30 28 28 29 24 23 20 20 21 26 30 29 28 29 29 35 35 37 41 40 40 40 42 43
69 67 66 70 69 69 68 64 61 57 59 50 31 22 15 8 15 21 21 24 27 27 26 31 31 28 24 24 22 27 30 26 29 34 36 38 41 44 43 41 45 49 48 52 55
72 68 68 71 68 68 65 62 57 52 57 43 25 18 11 11 19 22 23 25 26 27 28 31 28 25 25 24 23 24 22 29 35 35 35 34 33 34 35 37 37 39 39 40 41
72 72 71 68 69 69 64 61 57 56 48 38 21 13 11 16 20 23 24 28 29 28 25 27 27 25 26 26 24 25 26 28 29 32 32 31 32 33 33 34 34 34 35 36 35
76 74 71 70 67 66 66 59 55 53 43 35 19 13 17 19 22 22 23 28 25 29 26 22 24 26 26 27 28 28 29 29 29 29 29 29 29 26 30 30 31 31 30 25 20
79 78 74 71 67 70 67 61 56 48 40 30 20 15 22 22 21 20 21 25 28 29 28 26 28 30 31 29 29 30 27 24 23 24 23 25 26 26 26 27 24 18 17 17 17
81 81 77 73 71 70 62 59 59 47 41 29 22 19 24 25 23 22 22 24 24 25 27 28 26 27 27 26 25 22 21 20 21 23 25 24 23 22 18 16 15 15 15 17 19
82 82 83 74 74 74 63 62 58 40 39 30 26 23 26 26 26 26 24 23 25 24 23 21 21 21 22 22 22 22 23 23 23 22 21 18 18 17 17 16 15 16 18 20 20
87 85 82 73 73 64 60 64 56 39 35 31 30 25 29 29 27 27 26 26 22 22 22 22 23 24 24 25 24 23 24 24 22 19 17 17 17 17 16 16 18 20 22 23 24
84 87 83 79 73 66 62 63 52 39 33 32 32 27 28 30 28 29 29 28 25 25 26 25 26 26 24 23 22 23 23 22 20 18 18 18 17 17 19 20 23 24 27 28 30
90 91 86 80 68 67 67 61 50 39 32 33 32 29 31 30 28 31 30 29 29 27 26 25 25 23 23 23 23 21 19 19 19 18 20 20 20 20 23 24 27 29 32 35 37
96 92 86 69 68 69 67 61 52 40 33 35 33 34 35 33 32 34 31 30 31 28 27 25 24 23 22 19 20 20 21 22 21 22 21 24 23 25 25 29 32 34 36 39 41
92 82 81 73 70 73 69 60 50 41 37 39 36 38 39 36 36 35 33 32 30 28 27 24 22 20 20 22 22 23 23 24 24 25 23 26 27 28 27 31 35 39 41 44 47
92 84 79 75 75 72 65 54 50 44 42 43 43 43 39 39 39 34 34 32 30 29 27 24 21 22 23 25 26 25 25 28 28 25 25 30 31 31 35 36 39 42 46 48 52
88 85 78 74 72 71 62 56 49 45 46 47 50 46 42 40 39 37 35 33 32 30 28 26 25 25 27 28 26 28 30 29 28 30 30 32 36 37 41 43 45 47 49 52 56

GFSSW_250_spd_054.txt.gz
Wind_Speed
51 51 48 50 49 54 59 60 64 71 75 76 83 86 78 61 61 46 32 24 22 27 29 31 35 38 41 43 43 44 45 46 45 44 42 29 28 26 38 43 52 57 58 52 48
45 50 44 45 49 55 58 60 67 71 72 77 82 84 79 63 58 44 31 26 24 25 26 25 29 34 36 39 39 39 42 45 45 42 32 24 25 42 43 25 36 42 42 36 44
47 45 47 49 51 56 57 61 66 69 72 74 83 82 78 66 52 40 31 29 27 21 23 22 27 29 32 34 34 35 38 43 40 36 30 39 36 35 39 52 42 44 55 53 51
44 44 48 49 49 54 56 60 64 68 71 75 80 78 77 66 51 38 34 31 29 23 24 25 28 30 26 27 26 27 32 34 27 33 35 47 46 50 48 60 61 64 67 60 57
43 47 48 52 54 57 58 60 64 69 72 75 80 75 76 64 52 44 39 33 29 27 26 26 27 28 25 23 22 25 25 24 25 27 39 52 49 59 60 54 51 49 54 53 41
50 48 51 52 54 56 57 61 64 65 71 73 77 72 77 63 53 44 35 27 26 26 26 26 26 26 24 19 24 26 23 23 22 27 35 48 51 52 49 46 39 36 28 23 29
49 51 50 52 54 57 59 60 63 65 69 75 76 77 77 60 47 37 29 21 18 20 23 26 26 26 23 18 19 26 26 23 25 26 29 38 45 46 42 32 27 27 18 16 21
51 52 52 54 56 59 60 61 63 66 70 75 79 80 71 58 41 32 25 18 15 17 21 25 28 28 24 21 21 22 23 21 26 30 30 30 28 29 27 26 24 24 16 18 20
53 54 55 57 58 59 61 62 63 64 66 72 78 73 69 55 39 31 23 16 13 16 23 28 27 26 26 23 28 30 29 24 26 28 28 28 22 26 27 19 15 17 18 19 21
56 56 56 56 59 61 62 61 62 63 67 72 74 70 68 50 37 29 20 11 12 17 24 29 29 26 24 26 28 28 25 21 22 22 22 19 16 20 23 17 17 22 24 24 31
60 60 60 58 59 61 63 62 61 61 67 71 72 69 62 44 35 27 15 10 12 20 27 29 27 25 24 28 28 23 20 18 19 23 24 19 13 18 19 16 25 30 30 32 35
62 62 63 60 59 62 64 62 62 61 67 71 72 65 58 39 34 23 13 13 17 25 29 31 30 27 25 22 22 22 16 13 18 20 21 21 21 23 24 27 30 28 30 24 25
63 62 64 61 60 63 64 65 61 62 63 70 68 63 52 35 31 19 15 15 17 24 24 27 26 23 24 22 23 20 18 21 23 21 23 24 23 24 23 21 25 25 31 38 38
65 65 63 63 62 63 64 64 60 61 62 66 64 61 47 32 25 14 15 13 16 18 23 27 22 24 24 19 19 17 20 17 26 26 25 24 26 29 31 34 40 41 44 40 43
70 66 64 64 65 62 66 64 61 62 66 62 64 60 44 29 20 12 14 15 15 17 21 22 19 18 20 19 17 22 22 16 26 28 28 30 31 29 30 35 37 40 43 47 46
74 69 67 67 65 61 66 64 61 61 62 60 63 59 39 26 17 13 15 15 15 18 19 17 18 21 21 21 22 18 14 17 24 30 33 36 29 36 37 33 36 37 40 40 39
78 71 70 67 67 64 65 65 62 62 65 59 63 59 37 23 18 15 16 16 18 19 19 21 20 21 22 20 23 23 21 24 28 30 31 33 34 29 34 32 35 36 36 35 35
79 73 70 69 69 67 66 64 59 64 61 62 64 62 42 22 21 18 17 17 20 21 21 17 19 25 26 24 29 30 28 30 29 29 28 34 35 31 33 33 32 35 35 36 35
80 75 72 74 72 70 69 62 60 66 65 64 62 55 41 24 24 21 20 18 22 18 21 26 25 27 25 26 30 28 30 31 32 33 29 31 27 29 29 32 33 32 29 26 24
82 81 78 77 76 73 65 58 62 66 63 63 58 52 41 27 27 24 23 24 24 24 27 30 29 30 30 32 33 35 32 32 31 31 29 27 28 29 31 29 26 24 24 25 25
87 82 82 79 80 73 62 62 66 64 62 62 59 53 44 29 30 28 29 27 25 24 26 28 26 26 29 29 28 29 29 28 27 28 28 29 28 27 23 23 24 24 25 25 25
90 84 88 82 78 72 66 68 70 67 66 63 62 57 43 32 34 31 32 29 29 27 26 22 24 28 27 28 30 30 30 28 28 28 27 28 25 26 23 24 25 25 27 27 29
93 90 90 87 77 71 70 71 71 65 66 64 62 57 44 35 37 35 32 32 30 29 26 26 29 29 28 33 30 29 27 28 29 27 28 24 26 24 24 25 26 28 30 32 33
99 96 92 82 72 69 68 71 71 67 66 66 61 57 46 38 40 35 31 33 33 30 32 29 30 33 33 32 28 30 30 29 26 26 26 25 23 22 25 25 29 33 35 36 38
100 93 92 78 72 71 71 72 72 73 71 68 63 60 49 40 41 36 34 33 34 34 32 31 32 31 29 27 28 27 25 24 25 27 23 29 23 26 29 27 34 36 39 41 43
96 92 85 82 77 76 73 70 71 72 73 69 65 59 49 43 43 40 37 34 36 35 33 31 32 29 29 26 26 24 25 26 27 28 25 28 26 34 31 35 36 41 40 47 48
92 91 88 80 78 80 74 75 76 74 69 68 64 57 51 46 44 38 38 39 38 36 35 33 33 29 27 26 25 26 31 28 29 30 29 30 33 36 36 39 44 46 48 51 54

GFSSW_250_spd_057.txt.gz
Wind_Speed
62 57 62 65 53 50 47 49 51 57 57 61 67 70 74 76 77 79 70 57 43 32 28 25 23 26 31 33 36 41 45 52 49 39 37 31 36 36 41 47 49 46 36 42 53
60 61 59 55 47 47 47 49 53 55 57 61 65 69 73 75 79 79 70 53 43 32 30 28 24 25 32 33 34 39 43 39 39 35 29 31 34 31 38 36 39 21 23 18 32
59 60 57 45 44 44 47 47 51 54 58 61 66 69 74 74 78 81 71 53 37 35 30 27 24 23 29 33 35 38 38 36 34 31 32 34 31 37 37 31 31 23 25 27 25
59 59 50 43 44 45 47 47 51 53 57 61 66 70 72 74 79 79 68 52 36 30 30 27 24 23 27 29 31 32 29 28 29 32 29 30 30 41 43 34 36 24 24 20 24
57 55 45 43 45 47 50 51 51 54 59 62 67 71 73 75 78 79 61 45 35 26 26 24 21 26 26 27 23 24 21 20 25 27 22 27 41 47 42 31 32 36 30 22 25
58 53 46 44 44 48 49 49 51 54 57 62 66 70 73 75 79 78 58 42 33 24 23 21 21 25 26 25 20 17 19 19 23 21 25 34 45 51 48 45 26 40 44 32 26
55 50 47 42 44 49 49 51 50 54 56 61 67 71 72 74 79 74 53 39 31 23 16 19 23 21 25 23 19 22 24 22 23 24 27 40 46 46 42 45 43 32 56 46 41
48 43 42 44 48 50 50 50 52 55 55 60 65 70 71 73 77 70 51 40 30 19 12 17 23 23 25 23 19 25 28 24 21 24 29 38 49 42 42 48 52 46 45 48 40
48 46 46 49 51 50 52 53 52 55 56 59 65 67 71 70 73 67 51 41 25 14 11 15 21 26 27 28 26 22 25 24 19 24 21 28 41 43 46 43 47 51 49 34 31
49 51 51 51 52 53 55 54 53 55 56 58 65 66 67 68 71 65 51 39 21 14 12 18 23 28 29 26 24 24 23 20 16 18 17 15 18 26 33 33 31 28 28 29 26
54 53 52 53 53 55 54 54 53 55 56 57 63 67 65 69 67 61 47 36 22 16 10 16 25 31 29 29 22 21 23 20 16 18 17 16 17 17 25 22 25 27 28 33 26
61 59 58 57 56 56 57 54 53 52 57 55 62 66 64 60 65 57 44 31 19 16 14 19 24 27 29 24 23 24 18 16 18 20 20 21 21 22 22 24 25 26 22 28 32
66 65 64 63 61 61 60 54 54 51 55 55 61 65 57 61 64 57 39 26 18 16 13 19 24 25 22 17 14 15 16 17 17 19 23 23 20 20 24 23 26 28 30 25 25
71 70 67 66 66 64 60 60 53 52 53 54 58 63 59 60 60 52 37 23 15 12 14 16 18 19 14 10 9 11 15 16 22 22 24 26 25 24 21 22 25 25 23 26 26
76 76 70 69 68 64 64 61 55 55 52 54 57 61 60 50 57 50 31 24 13 11 11 11 13 14 12 15 12 15 16 18 23 27 27 28 29 30 27 26 27 34 40 41 44
75 74 72 70 68 63 64 61 58 54 55 53 57 59 53 52 57 45 28 21 16 11 11 12 9 13 15 13 15 17 18 16 18 22 30 28 26 32 31 29 32 34 32 35 37
75 71 71 69 72 65 67 63 58 53 56 54 57 58 55 53 50 42 28 20 16 11 12 10 14 15 16 15 16 20 17 16 17 18 23 21 25 24 30 28 35 37 36 35 34
81 77 77 76 73 71 69 63 58 58 57 55 56 57 51 49 47 44 29 21 15 15 16 13 12 16 19 20 23 22 22 21 21 20 22 26 25 29 32 30 33 38 36 33 34
86 80 74 77 73 72 69 60 58 58 57 57 58 54 51 46 51 47 30 25 18 17 18 20 25 24 21 25 26 23 27 26 24 28 27 30 30 28 32 31 33 33 33 33 36
94 88 84 82 75 74 67 58 55 60 58 61 58 55 53 54 55 49 34 27 25 22 23 22 22 25 25 23 26 25 28 25 26 30 32 34 29 28 32 32 31 32 35 36 34
102 96 90 89 82 74 63 58 61 64 61 60 58 57 56 55 53 51 37 29 31 26 26 28 29 30 28 29 33 33 34 34 31 30 31 31 28 30 35 33 32 33 32 28 29
95 92 93 94 85 73 64 63 63 65 62 60 59 58 58 55 52 47 40 31 34 32 29 26 28 29 31 27 29 31 31 27 24 27 28 33 31 32 35 33 32 29 26 29 32
100 95 96 92 84 71 67 64 63 64 63 62 62 60 55 56 54 49 42 33 35 34 33 30 30 28 26 28 28 26 25 26 27 30 33 33 36 29 32 30 26 26 28 32 35
110 104 100 94 79 73 70 66 65 67 65 63 63 60 55 57 56 53 50 38 35 37 35 33 31 31 29 29 26 26 29 31 31 31 36 31 36 28 29 22 26 30 34 35 37
118 108 100 90 79 73 70 68 67 66 64 63 63 61 57 57 56 56 56 41 36 38 37 32 33 34 33 31 28 32 30 31 31 33 34 33 29 27 24 27 30 34 38 39 39
118 105 98 89 85 79 74 70 69 70 67 66 63 61 59 58 56 53 49 40 39 38 36 33 34 32 33 33 30 31 30 31 30 30 29 28 26 30 28 30 31 35 42 44 45
102 98 96 91 87 81 73 72 71 72 69 67 63 61 60 60 59 56 54 45 39 42 39 33 35 35 35 32 30 30 31 27 28 29 29 30 30 33 33 35 38 43 43 45 48

GFSSW_250_spd_060.txt.gz
Wind_Speed
57 57 58 58 56 55 58 58 51 48 46 49 53 58 64 66 69 73 72 77 76 68 52 40 33 27 20 21 29 36 40 43 32 30 28 28 33 40 39 36 43 44 46 43 45
61 59 60 60 60 57 57 59 49 47 46 53 53 57 61 65 70 72 73 77 74 61 48 40 32 24 23 22 27 33 36 31 30 24 26 30 33 39 39 41 43 42 32 38 27
60 60 63 62 59 58 53 57 49 46 45 50 53 56 59 64 70 73 73 74 72 54 44 38 31 25 22 23 28 31 22 23 24 24 27 33 35 36 33 36 40 41 31 44 39
62 64 63 62 58 56 51 53 46 44 47 50 52 56 60 64 69 72 72 74 69 52 42 32 28 27 23 18 20 25 23 23 21 21 29 32 30 29 30 35 37 46 42 37 40
64 65 63 60 56 53 51 51 45 43 46 50 52 56 60 63 68 73 73 76 62 49 39 29 21 20 19 14 16 16 18 18 21 28 30 28 26 33 33 31 26 37 37 29 27
63 60 59 58 57 51 51 47 46 40 45 50 52 57 59 63 67 72 75 69 57 46 34 25 17 15 15 14 16 13 15 19 21 25 23 23 28 36 36 28 35 30 25 26 22
63 62 60 60 58 52 50 46 42 40 45 49 53 56 58 62 66 72 70 69 54 43 28 19 14 16 14 18 20 20 27 24 23 22 21 22 35 44 41 40 34 27 29 36 33
60 62 59 58 56 51 48 44 40 41 45 49 53 55 58 61 63 68 70 70 53 40 24 17 13 18 16 23 24 23 22 25 23 22 22 25 37 49 47 46 42 35 29 41 45
59 61 53 49 48 47 45 40 38 42 46 47 50 54 56 59 62 67 69 64 53 36 24 21 15 22 22 25 24 21 25 24 23 21 21 26 36 40 41 49 46 40 32 33 35
54 48 44 45 42 45 45 43 40 43 45 47 50 53 56 57 60 64 63 58 49 32 27 23 16 14 18 23 23 20 21 21 20 17 20 23 37 39 43 51 54 45 42 38 40
50 47 47 46 48 48 45 41 41 45 46 48 49 52 55 54 57 62 59 57 45 29 28 23 13 13 16 21 18 12 10 16 18 12 17 23 26 32 42 45 49 53 48 44 40
59 55 53 53 54 53 51 45 45 49 50 49 49 51 54 52 56 59 59 56 42 28 24 23 18 11 16 20 17 14 14 13 10 13 13 16 18 20 27 35 48 52 50 41 41
65 61 60 59 58 56 55 51 48 53 51 50 51 52 55 52 53 56 57 49 38 27 21 19 20 11 14 17 14 11 10 10 13 12 14 18 25 25 29 32 30 36 38 41 39
71 67 64 64 63 61 58 55 51 53 51 53 53 52 53 52 52 53 50 43 34 25 20 13 13 12 14 16 14 11 14 15 15 20 25 26 28 24 24 25 21 22 27 27 28
76 71 69 65 66 66 60 58 57 55 51 52 52 51 52 51 50 49 42 45 32 24 20 12 11 11 11 12 13 12 16 18 18 24 28 30 30 29 28 21 20 19 19 22 25
79 79 74 72 71 67 64 63 62 60 54 50 51 51 52 52 48 46 40 49 35 24 21 17 4 4 10 12 13 12 15 20 21 24 28 29 33 33 32 32 27 28 28 28 29
81 80 77 75 74 67 67 65 62 54 53 49 52 52 51 51 48 45 41 46 41 27 24 12 3 8 9 14 17 18 17 19 20 20 21 29 32 32 31 32 38 37 36 35 37
88 82 79 78 74 70 66 61 55 52 55 52 52 52 51 51 49 48 46 41 38 32 25 15 11 10 14 20 22 18 20 16 16 15 14 15 21 23 25 28 32 37 36 37 38
95 87 81 82 78 73 68 59 54 57 60 55 50 50 50 51 49 47 46 40 39 40 23 23 20 17 17 17 18 19 20 17 19 19 19 18 18 23 24 28 29 30 33 35 36
97 92 86 90 80 78 72 59 58 64 59 52 47 51 50 50 51 47 44 39 36 38 31 26 26 24 19 23 22 21 25 22 22 26 25 22 24 29 30 29 30 29 31 31 32
102 98 94 95 87 80 68 61 63 67 59 55 49 51 53 51 50 47 43 41 39 43 43 31 30 25 24 21 21 26 32 35 29 30 30 28 26 29 29 27 27 28 30 32 34
103 95 97 98 93 81 71 64 64 69 66 60 52 51 52 52 49 48 46 42 41 41 47 34 32 28 24 23 25 28 32 32 33 29 26 25 24 26 25 28 31 31 34 33 31
109 101 98 100 92 79 74 70 68 73 70 64 56 54 52 50 48 51 48 44 40 40 43 33 33 32 29 28 26 23 23 25 23 26 27 28 32 21 29 33 29 28 27 30 31
121 112 104 99 83 78 77 76 75 76 75 67 59 57 54 51 52 52 50 46 45 38 41 35 33 34 33 32 27 26 24 23 27 29 30 31 28 29 25 28 29 25 27 31 32
128 119 105 97 85 81 78 75 76 78 70 65 60 56 54 52 53 52 50 48 45 41 42 38 33 34 36 32 28 31 29 31 30 31 29 31 31 30 26 22 21 24 30 35 36
119 116 110 97 95 90 82 77 73 76 68 60 56 58 57 53 54 50 50 50 47 45 44 44 36 34 36 32 29 26 32 37 29 30 27 30 30 24 24 24 27 31 34 37 39
105 112 109 103 100 93 81 78 77 80 70 65 60 61 59 55 54 52 52 54 50 48 50 44 40 33 35 34 29 31 36 34 32 29 28 28 28 27 26 29 32 34 36 39 41

GFSSW_250_spd_063.txt.gz
Wind_Speed
62 60 59 60 57 57 57 57 58 58 56 53 55 57 54 57 59 63 69 70 74 76 74 62 53 44 35 25 19 25 29 25 25 25 23 27 33 36 38 39 40 42 49 47 46
63 61 58 59 59 59 60 59 59 60 53 53 53 55 53 55 59 64 68 69 72 75 75 60 51 39 31 23 18 19 25 25 25 26 26 31 31 36 38 34 37 36 39 35 35
67 63 61 60 58 60 59 59 61 59 50 52 52 52 51 54 57 64 66 68 72 74 71 59 46 35 25 16 15 14 19 23 25 26 29 32 33 35 38 40 37 40 35 29 24
63 65 62 61 62 59 59 61 58 56 48 52 51 51 51 55 57 61 65 67 74 74 67 55 39 29 14 11 11 14 17 19 24 25 24 26 26 30 33 35 34 37 33 31 32
67 63 62 64 63 63 63 63 59 52 46 50 50 48 49 53 56 58 64 67 72 71 62 47 34 25 13 7 11 16 16 18 18 19 23 26 26 30 30 29 29 27 26 27 29
67 67 68 64 64 65 63 61 53 53 49 51 46 46 48 53 54 58 64 64 71 69 58 40 29 22 9 8 11 15 15 19 24 24 26 26 27 28 32 27 25 30 37 34 36
62 63 61 66 64 62 61 58 54 52 52 46 43 44 46 50 52 56 62 64 71 68 54 40 25 19 8 6 9 17 20 23 22 22 22 23 24 29 31 30 33 39 36 38 36
63 61 58 60 61 58 57 56 51 48 49 41 39 42 44 48 51 54 61 63 68 66 51 42 22 18 8 9 8 11 11 18 18 18 19 22 26 29 37 34 33 35 32 31 33
61 60 58 57 55 57 54 52 45 42 41 37 38 42 44 47 50 53 60 61 68 63 47 41 22 19 13 7 8 13 13 16 17 19 18 21 27 37 44 44 41 38 36 39 36
61 62 63 58 53 54 54 45 39 39 38 38 40 40 45 47 49 52 57 58 64 63 45 36 22 24 13 11 9 14 15 18 16 8 9 12 26 39 46 48 41 41 40 34 37
64 61 59 58 52 50 49 38 37 38 43 39 41 42 45 46 48 51 54 54 61 58 43 35 26 24 10 5 10 12 14 15 12 10 9 12 14 36 47 49 47 41 38 35 30
68 65 60 56 54 53 51 42 40 44 44 40 42 42 45 46 46 49 51 51 55 52 39 32 19 19 7 2 11 12 12 11 17 12 9 14 19 27 37 49 48 46 42 41 41
68 69 65 62 60 57 50 45 47 49 47 46 45 43 43 44 45 47 48 49 51 50 36 31 21 16 10 4 8 8 7 9 11 11 11 14 22 24 25 37 49 51 49 48 45
70 66 68 67 64 64 57 54 52 51 48 49 44 44 44 45 45 44 45 45 47 49 37 28 25 12 11 6 7 9 8 9 14 15 16 17 17 19 24 29 39 44 53 46 48
76 73 69 64 68 66 63 62 57 53 48 49 48 46 45 48 46 44 43 44 46 45 43 24 22 13 8 3 4 8 12 13 17 15 17 19 20 22 27 24 29 36 43 40 36
82 76 74 70 69 67 66 65 60 53 46 47 48 49 47 49 44 43 42 41 42 44 41 22 15 8 3 5 9 9 11 12 17 18 16 21 23 26 31 31 28 30 34 33 27
91 86 77 76 75 67 67 68 66 53 53 50 51 50 48 47 43 43 43 38 39 42 37 23 17 16 12 11 10 13 13 13 14 17 15 22 26 30 34 33 33 33 35 38 38
96 95 89 89 79 72 70 68 62 58 58 52 51 48 44 44 43 43 41 39 37 37 34 29 20 17 16 15 18 16 15 14 16 16 15 18 22 25 35 37 37 36 36 40 43
100 95 94 94 88 79 73 66 57 58 58 52 51 46 45 44 43 43 40 41 39 37 36 33 28 19 17 21 19 15 17 18 14 14 17 16 17 20 22 26 34 36 35 37 41
101 96 92 100 97 86 79 65 58 62 59 55 51 47 48 47 45 42 40 43 42 37 36 36 36 27 18 22 23 20 22 19 15 14 16 19 22 25 26 25 28 31 33 34 35
107 100 94 101 99 92 77 68 65 66 62 60 53 53 52 49 46 41 41 43 44 39 36 37 38 28 21 21 21 24 25 25 24 23 24 24 28 30 30 29 28 29 29 29 31
113 105 100 102 99 85 73 71 70 72 65 61 58 55 54 53 50 44 47 45 44 39 37 34 36 34 22 19 25 25 25 26 29 27 24 24 24 24 25 23 24 26 28 31 35
120 113 109 107 97 75 71 72 73 74 66 62 59 55 53 55 52 49 52 47 45 41 38 36 37 35 27 21 25 26 29 28 26 25 24 24 24 20 23 25 28 30 32 33 36
122 124 119 111 92 81 75 72 69 73 69 65 62 58 55 55 53 52 54 49 47 41 41 36 38 37 35 27 25 31 31 30 28 22 25 24 23 23 23 26 28 33 32 34 35
121 117 113 107 93 84 78 73 73 72 71 70 65 61 59 57 57 51 50 49 48 43 41 39 40 41 38 32 27 33 33 34 29 27 23 23 24 25 27 28 29 30 31 29 30
110 109 111 102 101 94 83 73 70 74 70 67 63 62 59 59 58 52 52 49 49 46 42 43 44 45 45 39 30 30 33 34 32 28 20 23 28 27 27 28 26 25 25 26 30
96 106 107 107 105 97 82 78 75 80 72 68 66 65 60 58 60 56 52 50 45 46 45 45 46 47 45 41 33 27 35 34 33 30 23 25 29 29 26 26 26 24 26 30 34

GFSSW_250_spd_066.txt.gz
Wind_Speed
67 66 66 66 63 65 62 61 58 55 58 59 60 63 63 59 57 61 62 63 67 68 75 80 73 60 48 34 24 19 17 16 21 25 27 29 30 32 33 34 37 41 46 48 49
70 68 68 66 65 66 67 61 59 58 59 62 61 62 62 57 57 60 60 62 65 67 73 77 68 55 44 30 17 15 11 11 20 22 24 27 29 31 33 35 37 42 44 47 49
72 68 66 65 66 64 63 62 59 58 57 61 62 60 62 55 56 58 57 59 63 66 72 75 62 54 43 31 17 14 10 12 19 23 26 27 27 27 32 33 35 36 38 35 32
74 70 64 62 64 64 64 63 63 59 59 63 61 60 53 52 55 55 56 57 62 67 71 73 58 53 39 25 16 13 12 11 17 23 26 26 24 24 29 32 31 30 28 24 25
74 74 75 74 71 66 64 61 59 60 62 63 61 58 53 52 54 52 52 56 61 65 70 71 56 51 33 20 14 12 11 13 15 19 22 25 25 26 29 38 35 32 27 21 22
66 64 66 68 61 60 62 61 64 63 64 64 60 52 51 50 47 46 49 54 59 63 68 66 56 45 25 15 10 9 11 18 18 17 21 22 23 26 29 32 33 29 26 26 27
65 66 58 60 64 61 61 61 58 54 58 58 54 51 46 46 42 43 48 53 56 61 65 63 56 39 18 14 7 6 7 11 13 12 16 21 23 24 25 26 27 26 23 26 22
63 63 63 65 61 58 58 55 55 53 57 55 49 44 41 40 39 42 45 50 53 59 62 61 51 34 12 10 6 3 2 3 6 9 14 18 20 24 24 29 26 31 32 27 34
68 64 63 64 60 58 56 56 52 51 49 50 47 40 37 38 39 42 44 47 50 55 58 60 49 30 9 9 7 0 2 3 3 5 8 9 13 21 30 32 32 34 28 29 34
64 66 65 63 62 58 56 53 52 49 45 46 39 35 34 38 37 39 43 45 47 51 55 60 46 32 16 13 8 4 2 3 6 2 6 12 13 22 31 34 34 32 35 29 34
70 64 64 64 64 62 58 54 47 44 44 41 35 34 36 37 36 37 41 44 45 50 52 56 43 31 17 14 2 6 4 7 6 4 3 6 11 23 36 35 35 32 38 38 36
80 68 63 62 60 63 62 56 47 43 41 41 36 41 39 39 36 37 40 42 45 48 51 53 42 32 18 16 5 1 2 6 8 6 5 6 11 21 33 38 39 36 38 37 34
80 76 70 63 61 59 60 56 51 44 42 44 41 41 41 38 37 38 39 41 43 45 46 52 43 31 17 13 5 4 4 5 7 10 12 10 13 15 27 42 45 45 39 35 33
86 82 78 72 66 62 60 59 55 48 46 49 42 43 43 40 39 41 40 41 41 42 42 48 46 30 18 8 9 9 10 8 7 9 11 11 13 19 24 36 41 46 45 39 37
88 88 83 77 69 67 60 60 58 54 49 52 46 43 45 42 40 41 39 40 39 38 37 42 44 33 22 12 5 10 9 11 11 11 9 9 12 15 22 23 29 42 50 49 46
91 92 86 83 77 71 65 63 59 58 52 53 52 49 50 41 40 39 38 37 38 35 36 38 40 37 20 19 15 15 13 10 11 11 9 8 12 16 18 19 22 24 31 40 44
90 93 90 86 86 74 70 68 62 52 53 54 53 54 50 43 41 39 36 34 35 35 33 36 38 39 31 19 18 16 14 13 10 9 11 14 14 18 19 24 26 27 27 29 33
94 92 93 90 87 81 75 70 64 55 56 53 55 55 51 46 42 38 36 33 35 35 31 34 35 38 36 24 20 18 12 15 15 12 11 13 18 16 21 24 26 32 31 32 30
101 95 92 92 92 86 82 71 62 62 63 56 54 53 50 47 44 36 36 33 35 36 33 33 33 36 38 32 21 17 16 12 15 15 17 16 17 15 15 17 21 28 34 39 39
104 102 92 95 99 93 84 70 66 66 66 62 57 54 50 46 42 38 38 36 35 36 35 34 33 34 38 33 25 18 16 16 16 18 19 21 24 24 20 22 24 26 28 32 37
109 103 98 100 103 99 83 73 73 75 70 65 59 55 50 46 44 41 40 39 38 39 40 41 37 34 34 32 28 20 19 17 18 17 22 25 29 31 30 30 29 32 33 35 38
112 109 102 108 107 96 81 75 75 78 76 71 66 58 56 50 47 43 43 43 40 40 41 42 41 37 33 30 30 21 27 19 17 21 21 27 34 32 31 30 31 31 31 32 33
108 109 108 114 107 86 76 77 76 78 78 73 69 63 60 54 49 47 49 47 41 42 43 42 41 39 35 32 27 31 25 25 22 23 24 23 28 24 25 26 26 29 33 34 35
106 112 118 114 98 90 82 74 74 74 73 70 69 65 63 56 53 50 48 49 44 41 43 44 44 39 37 34 30 32 30 27 27 24 25 28 28 28 30 33 33 33 33 34 35
102 108 108 104 97 88 86 79 77 75 71 70 69 64 61 57 54 52 51 48 48 45 46 46 43 38 37 36 35 34 35 26 30 27 26 30 29 34 35 35 33 31 33 33 35
98 95 99 97 96 91 88 81 76 76 69 64 59 57 57 54 54 54 54 52 51 49 48 47 41 37 38 37 36 34 36 34 30 32 29 27 30 34 35 33 31 32 33 33 33
88 88 93 93 97 96 86 81 79 78 69 62 61 63 57 54 56 57 56 54 52 49 48 45 40 40 38 41 36 38 41 35 31 28 30 29 34 35 35 31 32 34 34 32 32

GFSSW_250_spd_069.txt.gz
Wind_Speed
70 67 69 67 59 62 67 64 64 62 63 59 58 59 62 64 61 63 64 63 60 63 63 67 72 78 72 58 50 42 37 31 15 15 18 24 29 34 38 41 42 44 43 47 49
69 70 71 69 68 69 66 68 58 61 58 58 59 61 64 60 61 64 63 60 58 59 60 65 74 74 65 55 43 37 32 24 13 18 21 26 30 34 36 36 35 37 37 40 47
65 67 68 72 74 71 71 67 61 65 65 64 63 66 57 57 62 63 60 56 57 54 58 64 72 71 60 48 39 30 28 18 13 19 23 28 30 32 35 37 39 37 33 38 37
55 59 67 70 67 70 74 72 68 68 62 63 61 58 57 60 61 59 55 52 52 52 57 64 69 68 54 45 31 23 21 14 14 19 21 22 25 26 30 31 32 33 33 32 27
58 56 55 60 63 62 64 64 63 67 64 58 56 54 57 58 56 55 49 50 45 51 57 62 66 65 52 42 25 22 14 10 13 16 18 19 22 24 26 28 30 30 28 22 25
61 58 59 61 60 60 61 58 55 55 51 52 52 54 57 55 52 46 42 42 42 49 54 58 65 63 54 33 22 16 8 5 6 10 13 18 22 24 23 23 24 24 20 24 21
70 70 68 64 61 58 60 58 58 48 52 54 54 56 51 49 45 41 38 37 42 47 52 55 62 59 52 32 18 7 6 4 4 6 9 16 21 22 18 21 24 25 24 24 26
74 77 70 64 61 59 59 54 55 52 52 50 52 48 46 44 41 37 34 35 39 44 49 52 57 55 48 29 15 10 10 8 1 4 6 10 14 15 17 21 24 29 25 25 28
82 76 79 68 63 58 58 56 54 56 54 53 47 41 46 42 35 31 31 33 37 41 46 50 52 56 48 29 14 5 10 11 7 6 0 6 12 16 19 22 23 28 30 29 26
89 88 83 73 68 61 61 57 54 54 53 50 46 43 46 36 31 28 30 33 36 40 44 47 48 54 45 32 16 4 7 8 3 3 3 3 8 16 20 22 26 28 31 31 31
86 83 87 80 72 68 64 62 60 59 54 48 43 41 38 31 29 31 32 33 36 40 42 44 45 49 44 34 14 10 8 5 6 2 2 6 10 14 24 27 28 29 31 30 16
89 80 76 79 76 75 70 62 61 60 53 51 43 42 33 31 32 32 31 32 37 39 38 41 42 44 47 33 14 10 8 7 7 5 5 3 6 11 19 30 32 31 31 31 34
86 79 75 78 78 76 71 64 63 58 56 56 48 41 31 36 31 33 33 33 35 36 35 38 38 43 45 36 20 8 7 12 9 5 7 6 6 7 16 26 34 29 31 32 36
81 76 76 75 75 73 70 69 65 59 51 49 44 42 34 37 34 35 32 33 33 34 33 35 36 40 42 41 28 21 12 9 8 6 8 11 10 12 14 20 36 32 33 31 37
80 75 75 78 74 72 68 71 68 62 51 49 44 42 39 37 37 36 34 32 33 33 31 32 32 34 37 40 30 21 18 11 10 10 11 11 12 10 12 15 24 39 37 38 36
83 79 78 78 75 75 69 73 71 67 53 46 45 44 43 41 41 40 38 34 33 30 29 29 30 31 33 37 34 23 16 11 8 9 7 10 11 12 12 12 19 20 34 37 43
87 84 79 81 84 78 73 72 77 67 58 49 47 47 46 44 43 42 40 35 32 30 28 27 26 29 31 34 38 27 18 11 9 9 7 10 12 11 12 13 14 15 16 16 20
88 89 83 83 91 85 77 73 75 65 62 53 50 51 48 47 44 41 40 36 34 31 29 28 25 29 32 34 38 30 22 13 10 13 11 12 16 12 17 20 20 21 22 23 21
89 92 88 88 92 93 84 75 63 66 66 59 54 53 50 47 43 41 38 37 33 31 29 27 27 30 32 34 37 32 22 20 15 14 17 17 18 16 15 18 19 19 21 24 27
91 94 90 94 97 98 89 74 65 66 68 65 58 56 53 52 46 40 39 38 34 31 30 28 29 31 33 34 36 32 26 20 22 17 19 20 23 22 17 20 22 22 24 25 26
94 94 92 99 101 102 87 73 67 66 68 66 61 57 56 52 50 42 39 39 35 32 32 30 29 30 33 33 37 30 24 20 23 22 21 19 24 24 23 23 26 30 31 31 33
95 93 96 106 105 94 86 74 72 67 70 67 65 58 56 54 51 49 43 43 38 35 35 34 29 32 31 32 37 27 26 25 18 22 20 25 29 25 24 27 30 32 34 36 38
91 98 102 111 103 91 85 83 78 71 70 69 66 61 57 57 51 49 46 46 40 37 38 34 32 34 34 32 35 26 26 25 20 19 29 28 33 25 22 21 24 28 30 32 35
91 100 108 110 93 93 91 85 79 75 72 71 69 64 59 60 57 55 53 51 47 41 38 34 34 34 36 35 36 27 26 25 25 23 22 34 36 34 29 27 26 28 31 34 38
92 93 99 91 86 89 88 87 86 80 75 72 69 63 62 61 57 57 56 53 50 46 40 37 35 36 36 37 36 28 27 26 26 28 24 28 35 42 37 31 31 30 32 37 40
83 85 86 84 91 94 92 86 83 81 79 71 66 65 63 60 59 61 59 55 52 49 43 38 37 38 36 37 34 30 31 28 28 30 31 30 30 35 40 36 34 34 33 36 37
76 81 82 82 91 91 88 85 81 79 79 73 68 69 65 62 64 60 55 52 50 48 46 43 40 38 35 35 32 33 33 32 32 33 31 30 33 35 39 39 39 37 37 37 35

GFSSW_250_spd_072.txt.gz
Wind_Speed
56 60 60 62 67 66 64 66 63 63 64 61 64 61 63 61 59 64 61 62 60 62 63 60 60 62 67 73 72 59 46 38 31 30 21 18 23 25 30 42 47 49 49 56 58
54 57 63 63 59 65 65 64 66 66 65 67 68 63 61 63 58 60 56 55 58 58 56 54 55 63 70 69 64 48 39 35 28 24 18 20 22 25 34 39 43 48 51 54 54
52 55 58 57 57 56 58 59 56 59 63 60 62 62 62 62 63 53 51 52 54 54 49 49 55 60 65 67 54 43 36 32 27 16 18 19 23 29 32 39 44 49 48 46 45
47 50 52 53 51 49 51 53 56 54 56 52 49 51 54 52 47 46 48 50 53 46 43 47 52 59 59 62 50 40 32 27 18 14 19 19 21 24 28 33 38 39 36 37 40
51 51 52 50 53 50 53 48 45 48 54 55 51 51 46 40 45 47 48 47 44 40 39 45 50 57 57 60 49 38 28 19 9 9 15 18 20 24 27 30 33 34 33 33 27
53 54 51 50 54 56 56 54 54 49 49 51 51 50 49 44 46 44 43 42 40 35 38 43 49 54 56 54 46 33 21 11 4 4 10 14 16 21 23 27 26 26 23 26 24
62 62 64 62 55 54 55 58 52 50 50 53 47 48 44 42 45 40 40 39 34 32 36 41 49 50 51 48 43 26 14 10 3 1 4 9 13 17 18 20 23 25 22 21 25
67 70 73 62 60 61 59 57 57 48 50 50 46 43 44 43 43 42 41 37 29 31 36 39 46 46 48 45 39 20 12 9 6 3 1 5 8 15 18 20 22 23 21 27 26
76 76 74 75 70 68 63 63 60 56 53 50 49 48 44 39 40 38 36 30 26 30 34 38 42 41 46 44 38 22 10 4 5 1 5 6 10 15 19 22 23 26 27 26 29
83 82 80 75 77 74 73 71 65 63 54 51 55 48 43 39 36 36 30 27 27 30 32 35 38 39 40 42 35 23 13 10 7 5 2 4 9 14 17 20 23 29 30 29 30
89 91 87 87 85 79 79 73 60 60 59 47 53 53 48 46 37 34 29 28 28 28 31 32 36 38 35 42 34 27 16 12 6 5 3 2 5 7 18 21 25 30 31 29 30
96 95 94 93 88 88 83 78 71 61 56 57 52 58 50 42 38 35 29 27 25 28 28 29 36 35 33 35 41 26 22 13 12 8 4 3 4 6 13 22 27 29 32 30 28
104 104 103 101 97 95 85 78 70 63 59 60 52 57 53 45 45 38 30 26 27 28 27 29 32 30 30 31 38 32 20 18 9 6 5 7 5 8 10 19 31 30 30 32 30
111 110 105 103 100 92 87 76 73 64 63 60 51 56 54 47 46 42 34 26 29 28 27 29 29 28 28 31 34 36 24 17 10 6 5 6 9 11 10 11 30 27 28 31 30
110 106 103 99 92 90 87 76 69 68 67 63 52 54 52 46 46 39 34 28 29 31 29 27 26 25 28 29 32 34 29 19 11 5 8 7 7 6 7 9 16 34 28 30 35
102 105 105 99 92 92 85 77 70 72 65 64 55 53 54 48 45 41 35 32 31 33 33 27 24 22 26 27 29 35 32 21 16 6 7 8 7 6 8 10 12 20 37 33 29
100 98 97 92 90 89 84 75 75 70 62 64 57 55 55 47 45 41 37 37 34 34 32 28 25 22 24 26 27 32 31 26 18 14 10 10 9 9 9 9 9 11 17 24 35
95 98 95 90 90 88 84 78 72 67 63 65 60 59 57 50 44 42 40 38 37 35 30 29 27 23 22 24 25 28 31 28 17 18 17 16 15 10 11 13 13 12 14 16 17
91 92 90 90 92 88 85 77 65 69 67 67 64 60 57 51 45 44 40 42 39 34 32 30 28 23 23 24 23 25 28 25 23 19 21 20 22 19 14 17 15 14 16 20 24
88 89 86 90 93 90 83 65 72 71 72 70 67 66 64 57 50 46 45 44 40 37 32 30 29 24 25 24 22 23 28 24 22 21 22 23 24 22 18 18 20 20 20 19 21
81 81 87 94 96 92 72 62 75 76 76 72 70 69 65 58 55 50 46 46 43 36 32 31 30 26 24 25 20 22 25 26 22 21 22 25 23 21 22 19 22 24 25 27 27
76 75 87 99 98 82 66 68 79 81 78 75 70 69 66 63 58 54 50 49 48 42 35 33 29 28 28 27 23 22 23 28 23 19 19 24 30 27 26 22 25 29 31 32 33
72 77 90 99 87 75 67 74 84 86 80 78 71 70 69 65 60 56 55 53 48 44 41 37 32 30 29 28 25 24 24 25 24 19 19 18 23 27 28 28 30 29 29 30 32
71 79 88 85 75 72 77 79 87 85 87 80 76 72 68 66 65 60 57 55 50 46 45 39 36 32 31 28 26 26 26 25 24 23 20 19 22 21 23 27 32 33 32 34 34
66 71 78 78 73 70 72 78 89 89 88 83 79 72 67 66 66 65 60 56 52 49 45 40 38 35 34 31 30 28 29 26 25 24 23 24 23 23 20 21 28 32 35 37 37
59 68 74 74 75 73 79 80 86 87 87 84 78 75 71 68 68 67 64 58 53 52 47 42 41 37 36 34 36 29 31 28 26 26 26 27 27 26 23 22 21 26 34 38 38
60 68 72 72 74 78 76 79 83 87 85 85 81 80 74 71 68 67 65 59 53 51 48 45 42 39 39 40 38 31 33 30 27 28 28 29 30 29 29 27 27 27 29 35 39

GFSSW_250_spd_075.txt.gz
Wind_Speed
38 39 45 51 49 53 57 59 59 55 60 65 63 59 63 63 61 58 56 56 57 54 50 51 54 54 53 56 63 65 66 57 42 35 30 21 17 15 20 33 42 60 51 48 45
37 35 37 41 46 48 51 52 55 58 51 54 59 58 50 51 54 51 50 48 45 45 46 49 49 51 49 56 64 63 61 48 38 31 22 14 13 15 31 43 47 58 56 51 52
43 39 35 38 42 48 50 51 53 51 53 53 52 50 52 48 47 47 42 40 43 43 44 46 47 45 47 56 61 62 55 44 36 27 16 11 12 14 29 50 53 53 60 56 50
49 48 41 37 39 42 42 39 39 40 37 36 37 44 45 46 46 46 43 41 39 40 42 44 42 41 47 54 58 56 48 40 33 23 12 9 12 14 22 38 42 43 53 60 59
58 55 45 44 42 44 46 48 46 43 47 47 44 44 39 41 38 42 41 40 38 39 41 41 37 41 46 50 56 51 45 37 27 20 10 6 10 13 18 28 35 43 35 51 57
61 61 57 51 50 47 51 50 47 50 50 48 48 47 42 41 36 38 38 38 38 39 40 36 35 39 44 48 52 43 38 32 22 15 9 4 7 12 17 23 29 30 32 30 37
68 65 65 57 51 56 53 56 54 51 53 49 47 40 39 41 40 31 39 38 35 36 36 33 33 36 40 48 49 38 34 29 21 14 5 14 22 18 17 20 25 29 35 33 31
69 73 70 73 71 61 60 58 64 63 52 56 48 46 41 38 39 38 37 33 33 34 33 31 31 33 39 44 45 37 30 21 8 16 11 22 24 34 23 20 22 26 30 28 24
76 71 74 74 78 76 64 63 63 61 59 58 59 51 47 45 39 42 41 33 31 32 31 31 29 30 38 40 40 35 28 20 11 14 9 11 20 17 18 18 20 22 26 27 24
79 77 77 76 82 79 74 69 70 65 62 60 62 56 50 49 37 46 42 35 32 30 32 32 28 30 35 36 36 34 26 23 16 13 10 7 11 11 12 16 20 24 25 28 31
87 85 86 86 83 82 81 75 77 73 70 68 61 61 43 44 41 48 42 38 32 31 34 28 28 29 34 34 35 32 26 23 19 14 8 7 6 5 9 12 21 27 29 29 32
94 91 91 88 88 90 90 88 81 84 76 68 62 58 53 43 37 50 45 40 33 33 31 30 25 29 33 31 33 31 27 23 23 15 8 7 9 5 4 10 20 29 29 26 29
99 96 95 94 94 98 92 92 87 82 75 69 69 62 63 48 44 45 48 44 40 34 30 32 26 29 32 29 32 29 29 22 22 16 9 5 5 6 6 4 20 25 31 28 27
109 103 99 98 97 94 97 97 91 89 81 75 74 66 61 48 44 44 48 45 40 39 32 34 28 28 30 29 29 28 27 25 17 18 13 9 5 5 6 6 17 24 28 32 28
111 111 108 108 104 103 100 102 101 96 89 79 67 65 57 50 53 42 50 47 41 37 33 33 29 29 31 28 28 27 26 23 20 14 16 13 9 6 5 5 9 28 30 27 32
118 114 113 115 114 112 111 109 107 103 91 80 66 65 58 53 51 44 53 54 44 35 36 32 32 31 29 29 27 26 25 25 22 13 14 12 10 7 7 7 8 16 25 30 30
107 106 107 107 114 114 109 109 110 97 83 77 67 61 62 55 52 48 53 53 45 39 39 34 36 30 29 29 27 25 24 24 24 19 13 14 12 10 12 10 10 13 18 31 28
102 99 103 103 107 109 108 108 103 82 80 73 65 62 64 58 56 48 54 52 44 40 38 39 36 31 29 28 26 24 23 22 24 21 18 17 13 17 14 12 12 14 16 17 24
95 93 93 96 105 109 110 102 82 78 81 77 66 63 68 62 60 50 55 52 47 45 42 40 34 33 31 29 26 25 22 22 21 23 22 19 15 15 15 20 18 15 17 20 21
87 86 87 93 100 105 103 88 76 78 80 73 65 66 72 67 62 51 53 54 49 46 42 38 37 34 33 29 27 23 22 23 21 20 23 21 19 16 18 16 18 18 18 20 21
79 75 82 92 97 100 89 71 71 76 77 70 65 71 75 70 68 59 52 58 53 48 45 41 39 35 30 33 27 25 23 23 23 20 19 22 21 16 17 21 23 21 22 23 26
73 69 80 86 86 87 80 64 69 77 78 71 69 76 74 74 73 62 54 54 57 53 48 45 41 33 34 31 29 26 24 24 24 23 20 21 23 16 15 17 23 26 27 26 27
65 68 77 81 73 76 68 65 70 76 76 73 74 81 78 78 77 65 62 65 67 56 50 46 39 38 35 32 32 27 25 24 24 24 22 21 21 21 17 14 19 27 30 32 32
63 64 66 64 68 71 62 65 71 73 77 76 80 86 81 81 80 72 64 61 69 59 55 48 44 41 40 36 31 28 28 26 25 25 23 20 20 20 22 21 20 21 29 36 36
56 58 62 55 64 62 63 64 69 76 77 79 86 86 83 83 86 81 74 65 66 65 59 53 47 44 44 40 34 31 30 30 28 27 27 23 21 20 21 20 21 21 22 24 30
46 53 57 56 63 58 63 66 76 80 81 80 86 87 87 85 87 85 79 76 74 69 64 58 51 47 46 43 38 34 33 34 32 30 29 29 25 22 22 22 22 23 24 25 25
44 49 52 55 59 54 63 67 68 81 82 89 92 93 91 86 88 87 85 82 75 69 66 61 54 49 45 46 41 33 38 36 34 34 31 32 29 26 27 25 25 28 29 28 30

GFSSW_250_spd_081.txt.gz
Wind_Speed
62 54 52 52 53 52 46 44 42 44 47 49 50 48 44 49 48 53 50 50 50 44 41 43 45 45 41 38 37 36 41 46 48 51 45 33 15 39 32 37 43 73 55 44 35
61 56 53 51 51 52 46 40 34 34 34 35 37 40 42 43 43 43 42 40 42 41 39 42 42 36 31 36 34 37 41 44 46 52 42 26 13 32 32 32 34 59 47 33 35
63 58 57 55 55 55 50 49 44 39 36 36 33 33 33 33 33 36 31 30 31 37 38 39 36 31 30 30 33 36 40 44 46 49 39 23 11 27 41 32 34 42 52 39 38
66 67 59 60 60 50 46 51 48 46 43 35 37 37 32 35 36 37 39 40 34 35 35 36 33 33 28 27 29 36 42 45 46 46 36 18 4 22 47 40 40 40 40 40 36
71 66 67 66 67 57 53 49 53 50 47 42 41 41 39 37 38 37 39 35 35 27 28 29 30 28 25 24 29 35 40 45 48 43 29 12 3 21 48 40 47 40 41 39 35
74 71 69 72 67 60 54 53 52 54 52 49 47 45 46 49 43 40 41 42 35 28 29 33 30 27 22 29 28 35 39 43 45 40 22 11 5 10 38 53 46 46 46 46 40
76 74 72 74 71 61 60 60 63 57 53 51 51 49 45 55 50 55 53 49 40 35 35 32 32 30 24 30 27 33 36 41 44 44 13 9 8 12 28 49 51 53 48 47 42
73 72 76 73 68 68 67 68 62 61 58 54 51 44 52 57 52 54 51 55 45 34 33 35 32 31 26 27 29 30 33 39 42 42 25 17 6 13 23 28 49 51 53 43 50
83 79 78 76 77 68 66 73 69 67 67 62 58 48 54 61 57 55 56 54 53 38 31 33 33 33 27 24 26 24 32 36 42 42 33 12 20 17 16 27 20 35 49 65 53
81 82 85 81 81 80 79 72 73 72 68 72 66 61 57 56 63 64 60 61 56 55 36 32 30 35 32 27 25 28 29 34 37 41 36 17 11 20 16 23 15 17 27 37 39
84 81 81 85 87 87 87 83 79 77 75 75 73 66 62 61 58 67 66 59 61 59 51 36 32 35 32 29 25 29 26 34 38 38 38 26 10 11 16 30 35 19 22 28 32
94 94 92 92 89 91 93 97 93 89 78 77 74 64 67 65 60 65 61 60 57 57 62 39 38 33 31 30 30 30 26 32 36 34 37 29 21 11 8 15 24 23 22 25 34
101 101 101 100 97 97 94 91 93 89 80 75 80 78 70 69 58 71 60 61 63 61 63 46 44 38 32 31 31 31 27 31 36 34 37 33 23 13 10 10 14 19 21 24 30
105 106 106 106 113 110 107 103 106 99 97 85 91 81 80 76 69 72 70 62 65 65 66 53 49 39 34 31 29 30 29 29 35 33 33 29 25 15 13 11 10 17 20 25 25
105 109 110 108 111 113 113 112 110 110 108 99 89 83 82 82 80 80 78 72 65 64 73 61 49 43 31 31 29 30 33 30 34 31 30 28 25 19 13 8 10 9 18 21 26
116 117 113 113 114 114 114 116 120 116 107 96 88 83 86 85 83 82 78 80 72 71 63 56 49 39 35 34 30 32 34 33 33 30 26 26 21 21 14 8 9 9 8 22 23
116 117 122 118 119 119 119 119 120 117 103 93 91 92 91 88 87 87 79 78 70 68 60 57 47 42 36 36 29 30 34 36 32 30 25 23 17 17 18 11 10 10 12 10 27
121 120 119 120 127 123 129 128 128 109 108 96 102 105 100 97 91 90 85 77 72 70 66 60 52 49 46 38 33 31 33 40 33 29 26 26 19 16 18 18 13 12 13 11 12
105 115 111 114 125 126 126 122 114 108 109 102 106 114 107 98 95 94 90 87 81 77 70 66 53 56 48 43 37 35 34 36 33 30 25 24 22 18 18 18 17 13 12 15 14
98 97 99 105 106 105 105 97 101 100 103 105 107 106 104 101 98 99 96 87 84 78 76 70 62 56 53 47 37 36 38 33 34 31 25 24 20 19 20 20 18 13 15 18 16
89 87 87 92 92 88 83 86 89 89 89 91 90 100 92 94 95 96 96 90 86 83 79 71 57 57 60 45 38 42 38 34 35 32 25 22 18 18 18 15 17 17 16 17 20
80 76 81 87 84 79 76 83 87 81 79 81 84 90 86 86 89 85 82 75 76 78 70 65 65 66 58 53 43 43 43 36 35 33 26 24 20 18 19 17 20 19 16 17 20
69 68 72 74 66 68 72 73 76 75 73 76 78 80 82 81 83 70 79 70 63 64 65 69 63 69 61 52 44 42 45 38 36 33 33 28 23 17 17 18 20 20 19 16 17
65 61 62 63 60 61 63 65 70 69 65 66 71 79 77 75 74 67 71 73 69 65 59 69 62 68 57 52 49 45 49 40 38 35 35 31 29 21 19 20 21 21 22 17 14
59 54 57 56 55 59 59 60 59 56 55 59 64 73 68 61 67 65 67 70 63 62 61 62 62 70 61 57 49 50 51 45 38 38 32 36 30 28 23 22 23 25 25 22 20
54 51 55 53 53 55 53 52 54 48 52 60 66 71 62 59 66 63 65 67 67 67 64 65 65 76 66 58 49 52 49 47 41 38 35 39 34 31 28 25 26 28 26 28 25
47 52 51 46 45 46 47 51 48 49 52 58 60 61 50 55 62 67 66 75 73 68 68 69 75 75 66 60 55 50 44 44 44 41 39 37 39 33 31 28 30 33 34 30 26

GFSSW_250_spd_087.txt.gz
Wind_Speed
65 64 61 63 61 63 63 63 62 59 55 55 54 51 51 49 46 41 41 37 37 35 34 35 37 37 35 35 38 44 40 41 41 35 37 40 46 48 40 35 31 24 28 27 29
69 67 66 65 66 65 66 68 66 63 57 56 52 50 51 50 45 42 43 36 33 30 30 31 31 34 37 39 43 34 37 37 34 30 34 37 45 47 38 30 27 28 29 32 34
75 73 71 70 71 71 69 67 69 66 59 57 54 50 50 50 47 43 40 38 34 33 31 29 29 33 34 38 36 38 36 34 36 31 34 37 42 46 35 28 21 30 30 38 42
79 80 81 80 76 73 73 69 70 69 67 60 57 54 53 51 49 41 43 45 41 33 35 36 38 35 35 35 37 35 36 35 38 33 35 36 39 45 30 25 23 29 34 45 44
86 86 83 78 78 78 73 72 70 71 70 64 60 57 54 56 52 45 48 43 42 42 35 36 37 34 34 36 37 36 35 34 37 34 35 36 38 41 37 25 24 29 37 50 49
93 89 86 80 80 77 74 75 71 70 70 68 65 60 56 59 53 49 51 48 42 42 41 35 39 39 38 37 37 35 34 33 30 29 32 35 39 38 40 25 20 33 35 57 58
93 84 83 82 84 79 76 75 76 76 66 71 67 62 56 65 54 53 52 47 45 47 39 39 38 35 36 37 38 39 35 26 27 31 31 34 37 33 39 30 20 32 35 57 62
86 81 84 79 80 83 78 76 78 75 72 68 67 63 57 68 57 55 51 52 51 47 45 39 39 39 40 40 38 46 39 35 32 31 30 33 36 34 37 31 23 25 42 41 57
87 83 80 79 78 82 80 79 78 75 73 69 59 59 62 67 61 58 60 57 54 52 51 45 44 46 50 44 42 43 42 37 28 29 29 32 36 36 35 35 23 26 35 45 48
91 87 79 76 78 79 79 80 77 75 77 72 66 62 61 69 64 61 59 61 56 58 55 48 43 50 55 45 45 45 50 39 35 27 30 30 33 37 35 38 24 20 30 37 47
90 86 78 77 75 78 79 83 79 78 75 77 72 66 68 71 66 64 61 65 60 60 61 55 48 50 53 45 43 44 46 41 41 33 30 27 31 39 34 38 29 20 28 39 42
94 85 79 78 76 77 83 83 81 78 74 75 68 67 72 75 62 64 62 63 63 63 64 56 49 57 52 48 47 47 45 47 43 29 30 27 28 36 34 38 34 28 21 32 44
91 83 79 79 77 79 81 88 85 81 77 75 76 71 76 75 66 66 67 66 66 70 70 61 56 57 55 51 50 47 47 56 57 49 36 29 27 29 34 37 36 29 25 21 35
88 84 81 81 80 79 83 87 87 85 84 75 78 77 76 78 75 78 79 72 70 69 68 62 61 63 60 55 50 49 55 56 55 61 37 32 28 27 31 31 35 31 24 19 27
90 86 84 85 87 87 87 89 89 90 90 82 79 78 82 79 79 80 77 70 69 73 73 65 67 64 61 57 55 57 62 63 60 59 55 38 28 24 30 27 32 32 25 20 19
86 83 81 83 84 87 86 88 90 93 89 86 86 80 80 81 79 76 77 71 72 75 74 71 70 68 62 63 64 62 66 62 55 57 55 45 29 26 28 28 29 32 21 21 16
86 83 80 80 82 84 86 87 83 85 88 91 90 88 91 86 85 83 80 77 76 73 69 73 68 69 71 74 75 65 60 64 58 52 46 32 29 26 23 27 29 30 26 14 13
82 79 80 85 83 79 86 82 83 80 88 91 90 96 94 93 90 89 89 86 82 78 78 80 77 73 71 70 69 74 74 67 57 47 40 33 27 26 20 23 26 26 26 16 6
77 74 74 79 79 80 85 75 71 79 87 87 89 100 105 99 97 100 93 88 88 90 89 90 85 82 81 77 78 70 75 66 63 50 39 36 33 24 20 20 23 22 20 16 11
73 71 69 74 72 74 75 71 71 76 89 89 96 98 98 104 102 101 101 98 100 97 93 90 90 87 85 82 77 74 72 69 64 56 39 40 37 23 19 18 23 22 16 13 11
66 62 66 70 66 64 60 65 72 82 87 85 84 93 97 101 97 100 96 95 99 97 94 91 90 86 86 83 78 77 76 69 65 57 38 43 37 30 22 18 20 21 16 14 14
59 55 65 66 59 55 55 62 70 78 83 82 81 86 93 94 97 97 89 97 102 99 99 98 90 86 86 84 80 78 76 72 61 54 47 43 42 33 28 20 21 20 15 12 13
53 52 59 58 50 51 58 62 68 71 72 71 77 81 81 84 82 79 90 96 95 97 97 98 95 88 86 87 82 82 70 69 64 52 43 43 47 38 30 24 23 23 20 13 11
47 47 52 49 50 53 58 61 62 68 68 63 65 72 73 79 81 78 77 84 87 89 90 96 91 83 86 89 87 80 76 74 72 59 50 41 54 45 38 30 25 27 27 21 14
42 46 48 47 52 53 52 56 58 59 61 60 63 66 65 68 70 71 74 74 73 70 72 78 69 73 72 77 80 81 77 75 70 61 54 47 57 53 46 33 26 28 29 28 20
42 44 47 49 46 44 44 50 53 54 55 53 59 61 60 63 68 65 60 59 60 62 65 67 61 66 65 66 67 71 68 65 63 57 52 51 56 57 49 37 29 28 31 32 29
38 40 43 42 40 39 46 48 50 49 51 52 56 54 57 59 61 55 53 55 55 59 64 58 59 60 60 66 67 66 48 55 58 56 51 55 59 58 51 42 30 27 27 34 32